EA1FJG Weather Reports


Display with metric or nautical units.
time (UTC)temp
F
wind
direction
speed
MPH
gust
MPH
rain 1hr
in
rain 24hr
in
rain mn
in
humidity
%
barometer
mb
20260905095924 82 348 1.0 2.0 0.00 0.00 0.00 74 1019.9
20260905095803 82 348 1.0 2.0 0.00 0.00 0.00 72 1019.9
20260905095703 82 348 1.0 2.0 0.00 0.00 0.00 72 1019.9
20260905095603 82 346 1.0 2.0 0.00 0.00 0.00 71 1019.7
20260905095504 83 341 1.0 2.0 0.00 0.00 0.00 70 1020.0
20260905095424 83 340 1.0 2.0 0.00 0.00 0.00 70 1019.9
20260905095305 83 335 1.0 2.0 0.00 0.00 0.00 71 1019.8
20260905095203 82 325 1.0 3.0 0.00 0.00 0.00 71 1020.0
20260905095103 81 318 1.0 3.0 0.00 0.00 0.00 74 1019.9
20260905095003 81 318 2.0 3.0 0.00 0.00 0.00 75 1019.9
20260905094903 81 312 2.0 3.0 0.00 0.00 0.00 75 1019.8
20260905094803 81 305 2.0 3.0 0.00 0.00 0.00 75 1019.9
20260905094703 80 297 2.0 4.0 0.00 0.00 0.00 76 1019.8
20260905094603 80 293 2.0 4.0 0.00 0.00 0.00 77 1020.0
20260905094524 80 293 2.0 4.0 0.00 0.00 0.00 77 1020.0
20260905094403 80 291 2.0 4.0 0.00 0.00 0.00 76 1019.7
20260905094303 80 289 1.0 4.0 0.00 0.00 0.00 76 1019.9
20260905094203 80 294 1.0 4.0 0.00 0.00 0.00 78 1020.1
20260905094124 80 294 1.0 4.0 0.00 0.00 0.00 76 1019.8
20260905094003 81 302 1.0 4.0 0.00 0.00 0.00 76 1019.9
20260905093924 81 310 1.0 4.0 0.00 0.00 0.00 77 1019.9
20260905093803 81 310 1.0 4.0 0.00 0.00 0.00 76 1019.9
20260905093703 81 321 1.0 4.0 0.00 0.00 0.00 75 1019.8
20260905093624 80 347 1.0 2.0 0.00 0.00 0.00 76 1020.0
20260905093503 80 346 1.0 2.0 0.00 0.00 0.00 76 1020.0
20260905093424 79 346 1.0 2.0 0.00 0.00 0.00 76 1019.7
20260905093324 79 346 1.0 2.0 0.00 0.00 0.00 77 1019.8
20260905093203 79 346 1.0 2.0 0.00 0.00 0.00 77 1019.9
20260905093103 79 346 1.0 2.0 0.00 0.00 0.00 77 1019.8
20260905093003 79 346 1.0 2.0 0.00 0.00 0.00 77 1019.9
20260905092924 79 345 1.0 2.0 0.00 0.00 0.00 78 1019.9
20260905092803 79 345 1.0 2.0 0.00 0.00 0.00 78 1019.8
20260905092703 79 345 1.0 2.0 0.00 0.00 0.00 78 1019.8
20260905092603 79 345 1.0 2.0 0.00 0.00 0.00 78 1019.8
20260905092503 80 345 1.0 2.0 0.00 0.00 0.00 77 1019.9
20260905092403 80 345 1.0 2.0 0.00 0.00 0.00 77 1019.8
20260905092306 80 345 1.0 2.0 0.00 0.00 0.00 78 1020.1
20260905092203 80 345 1.0 2.0 0.00 0.00 0.00 78 1020.1
20260905092103 80 339 1.0 2.0 0.00 0.00 0.00 77 1019.9
20260905092003 80 340 1.0 2.0 0.00 0.00 0.00 78 1019.8
20260905091903 79 340 1.0 2.0 0.00 0.00 0.00 79 1019.9
20260905091803 79 340 1.0 2.0 0.00 0.00 0.00 78 1020.0
20260905091724 79 340 1.0 2.0 0.00 0.00 0.00 78 1020.0
20260905091603 79 342 1.0 2.0 0.00 0.00 0.00 78 1019.9
20260905091503 78 343 1.0 2.0 0.00 0.00 0.00 80 1020.0
20260905091403 78 343 1.0 2.0 0.00 0.00 0.00 79 1020.1
20260905091303 78 343 1.0 2.0 0.00 0.00 0.00 79 1020.1
20260905091224 78 345 1.0 3.0 0.00 0.00 0.00 79 1020.1
20260905091103 78 348 1.0 3.0 0.00 0.00 0.00 79 1020.1
20260905091003 78 348 1.0 3.0 0.00 0.00 0.00 80 1020.0
20260905090903 77 349 1.0 3.0 0.00 0.00 0.00 80 1020.0
20260905090803 77 350 1.0 3.0 0.00 0.00 0.00 82 1020.0
20260905090703 77 350 1.0 3.0 0.00 0.00 0.00 81 1019.9
20260905090603 77 349 1.0 3.0 0.00 0.00 0.00 81 1019.9
20260905090503 77 349 1.0 3.0 0.00 0.00 0.00 81 1019.9
20260905090403 77 346 1.0 3.0 0.00 0.00 0.00 81 1020.0
20260905090303 77 339 1.0 3.0 0.00 0.00 0.00 82 1020.1
20260905090224 77 337 1.0 3.0 0.00 0.00 0.00 82 1020.0
20260905090103 77 334 1.0 3.0 0.00 0.00 0.00 82 1019.9
20260905090003 76 335 1.0 3.0 0.00 0.00 0.00 83 1019.8
20260905085903 76 335 1.0 3.0 0.00 0.00 0.00 83 1020.0
20260905085803 76 335 1.0 3.0 0.00 0.00 0.00 83 1019.9
20260905085724 76 334 1.0 3.0 0.00 0.00 0.00 83 1020.0
20260905085603 76 332 2.0 4.0 0.00 0.00 0.00 83 1019.9
20260905085503 76 331 2.0 4.0 0.00 0.00 0.00 82 1020.0
20260905085403 76 330 2.0 4.0 0.00 0.00 0.00 82 1020.1
20260905085305 76 336 2.0 6.0 0.00 0.00 0.00 82 1020.0
20260905085224 76 342 2.0 6.0 0.00 0.00 0.00 83 1019.8
20260905085124 76 343 2.0 6.0 0.00 0.00 0.00 83 1019.9
20260905085003 76 343 2.0 6.0 0.00 0.00 0.00 84 1019.8
20260905084903 75 344 2.0 6.0 0.00 0.00 0.00 84 1020.0
20260905084803 75 344 2.0 6.0 0.00 0.00 0.00 84 1020.0
20260905084703 75 346 2.0 6.0 0.00 0.00 0.00 84 1020.0
20260905084603 75 349 2.0 6.0 0.00 0.00 0.00 84 1019.7
20260905084503 75 355 2.0 6.0 0.00 0.00 0.00 85 1020.0
20260905084403 75 356 2.0 6.0 0.00 0.00 0.00 85 1019.8
20260905084303 74 358 2.0 3.0 0.00 0.00 0.00 84 1019.8
20260905084203 74 358 2.0 3.0 0.00 0.00 0.00 85 1019.8
20260905084103 74 2 2.0 3.0 0.00 0.00 0.00 85 1020.0
20260905084003 74 1 2.0 3.0 0.00 0.00 0.00 85 1019.9
20260905083903 74 2 2.0 3.0 0.00 0.00 0.00 86 1020.1
20260905083803 74 2 2.0 3.0 0.00 0.00 0.00 86 1020.0
20260905083703 74 4 2.0 3.0 0.00 0.00 0.00 86 1019.9
20260905083603 74 4 2.0 3.0 0.00 0.00 0.00 86 1019.8
20260905083503 74 3 2.0 3.0 0.00 0.00 0.00 86 1020.1
20260905083403 74 3 2.0 3.0 0.00 0.00 0.00 86 1020.1
20260905083303 74 3 2.0 3.0 0.00 0.00 0.00 86 1020.2
20260905083203 74 3 1.0 3.0 0.00 0.00 0.00 85 1019.9
20260905083103 74 4 1.0 3.0 0.00 0.00 0.00 85 1019.9
20260905083024 74 5 1.0 3.0 0.00 0.00 0.00 85 1020.0
20260905082903 74 8 1.0 3.0 0.00 0.00 0.00 84 1019.8
20260905082824 74 11 1.0 3.0 0.00 0.00 0.00 84 1020.0
20260905082704 75 7 0.0 2.0 0.00 0.00 0.00 83 1020.1
20260905082603 75 9 0.0 1.0 0.00 0.00 0.00 83 1019.9
20260905082503 74 14 0.0 1.0 0.00 0.00 0.00 84 1020.0
20260905082424 74 1 0.0 2.0 0.00 0.00 0.00 84 1020.1
20260905082324 74 15 1.0 2.0 0.00 0.00 0.00 85 1019.9
20260905082203 74 16 1.0 2.0 0.00 0.00 0.00 85 1019.9
20260905082103 74 19 1.0 2.0 0.00 0.00 0.00 85 1020.0
20260905082003 73 26 1.0 2.0 0.00 0.00 0.00 85 1020.0
20260905081903 73 16 1.0 2.0 0.00 0.00 0.00 86 1019.9
20260905081803 73 17 1.0 2.0 0.00 0.00 0.00 86 1019.8
20260905081724 73 21 1.0 2.0 0.00 0.00 0.00 87 1019.9
20260905081603 73 22 1.0 2.0 0.00 0.00 0.00 87 1019.9
20260905081503 73 12 1.0 2.0 0.00 0.00 0.00 87 1019.9
20260905081403 73 7 1.0 2.0 0.00 0.00 0.00 87 1019.9
20260905081303 72 8 1.0 2.0 0.00 0.00 0.00 87 1019.8
20260905081203 72 1 1.0 2.0 0.00 0.00 0.00 88 1019.6
20260905081124 72 1 1.0 2.0 0.00 0.00 0.00 89 1019.7
20260905081003 72 7 1.0 3.0 0.00 0.00 0.00 89 1019.8
20260905080924 72 15 2.0 3.0 0.00 0.00 0.00 89 1019.7
20260905080803 72 30 2.0 3.0 0.00 0.00 0.00 89 1019.7
20260905080703 72 33 2.0 3.0 0.00 0.00 0.00 89 1019.8
20260905080603 72 38 2.0 3.0 0.00 0.00 0.00 89 1019.5
20260905080503 72 46 1.0 3.0 0.00 0.00 0.00 89 1019.7
20260905080403 72 54 1.0 3.0 0.00 0.00 0.00 90 1019.9
20260905080324 72 58 1.0 3.0 0.00 0.00 0.00 89 1019.8
20260905080203 71 58 1.0 3.0 0.00 0.00 0.00 90 1019.7
20260905080003 71 54 1.0 2.0 0.00 0.00 0.00 90 1019.6
20260905075903 71 52 1.0 2.0 0.00 0.00 0.00 91 1019.7
20260905075824 71 52 1.0 2.0 0.00 0.00 0.00 91 1019.7
20260905075703 71 44 0.0 2.0 0.00 0.00 0.00 93 1019.7
20260905075603 71 35 0.0 1.0 0.00 0.00 0.00 93 1019.5
20260905075503 70 35 0.0 1.0 0.00 0.00 0.00 94 1019.7
20260905075403 70 33 0.0 1.0 0.00 0.00 0.00 94 1019.7
20260905075306 70 33 0.0 1.0 0.00 0.00 0.00 94 1019.7
20260905075224 70 34 0.0 1.0 0.00 0.00 0.00 95 1019.7
20260905075103 70 33 0.0 1.0 0.00 0.00 0.00 96 1019.8
20260905075003 69 38 0.0 2.0 0.00 0.00 0.00 96 1019.8
20260905074903 69 39 0.0 2.0 0.00 0.00 0.00 96 1019.7
20260905074803 69 42 1.0 2.0 0.00 0.00 0.00 96 1019.8
20260905074703 69 43 1.0 2.0 0.00 0.00 0.00 97 1019.6
20260905074603 69 43 1.0 2.0 0.00 0.00 0.00 97 1019.6
20260905074503 68 40 1.0 2.0 0.00 0.00 0.00 97 1019.8
20260905074403 68 33 1.0 2.0 0.00 0.00 0.00 97 1019.7
20260905074303 68 22 1.0 2.0 0.00 0.00 0.00 98 1019.8
20260905074203 68 21 1.0 2.0 0.00 0.00 0.00 98 1019.6
20260905074103 68 20 1.0 2.0 0.00 0.00 0.00 98 1019.6
20260905074003 68 17 1.0 2.0 0.00 0.00 0.00 98 1019.7
20260905073903 68 17 1.0 2.0 0.00 0.00 0.00 98 1019.8
20260905073803 68 14 1.0 2.0 0.00 0.00 0.00 98 1019.6
20260905073703 68 10 1.0 2.0 0.00 0.00 0.00 99 1019.7
20260905073603 68 26 1.0 3.0 0.00 0.00 0.00 99 1019.8
20260905073503 68 31 1.0 3.0 0.00 0.00 0.00 99 1019.8
20260905073403 68 35 1.0 3.0 0.00 0.00 0.00 99 1019.9
20260905073303 68 39 1.0 3.0 0.00 0.00 0.00 99 1019.8
20260905073203 67 44 1.0 3.0 0.00 0.00 0.00 99 1019.8
20260905073103 67 46 1.0 3.0 0.00 0.00 0.00 99 1019.9
20260905073025 67 47 1.0 3.0 0.00 0.00 0.00 99 1019.8
20260905072903 67 47 1.0 3.0 0.00 0.00 0.00 99 1019.8
20260905072803 67 51 1.0 3.0 0.00 0.00 0.00 99 1019.7
20260905072703 67 58 1.0 3.0 0.00 0.00 0.00 99 1019.8
20260905072624 67 58 1.0 3.0 0.00 0.00 0.00 99 1019.8
20260905072503 66 54 1.0 3.0 0.00 0.00 0.00 99 1019.8
20260905072403 66 54 1.0 3.0 0.00 0.00 0.00 99 1019.8
20260905072306 66 55 1.0 3.0 0.00 0.00 0.00 99 1019.7
20260905072224 66 56 1.0 3.0 0.00 0.00 0.00 99 1019.7
20260905072103 66 65 1.0 3.0 0.00 0.00 0.00 99 1019.7
20260905072003 66 63 2.0 3.0 0.00 0.00 0.00 99 1019.9
20260905071903 66 64 2.0 3.0 0.00 0.00 0.00 99 1019.8
20260905071803 66 64 2.0 3.0 0.00 0.00 0.00 99 1019.8
20260905071724 66 64 2.0 3.0 0.00 0.00 0.00 99 1019.8
20260905071603 66 72 2.0 3.0 0.00 0.00 0.00 99 1019.7
20260905071503 66 71 2.0 4.0 0.00 0.00 0.00 99 1019.7
20260905071403 66 72 2.0 4.0 0.00 0.00 0.00 99 1019.8
20260905071324 66 73 2.0 4.0 0.00 0.00 0.00 99 1019.7
20260905071203 66 73 2.0 4.0 0.00 0.00 0.00 99 1019.8
20260905071103 66 70 2.0 4.0 0.00 0.00 0.00 99 1019.7
20260905071003 66 71 2.0 4.0 0.00 0.00 0.00 99 1019.9
20260905070903 66 72 2.0 4.0 0.00 0.00 0.00 99 1019.8
20260905070824 66 69 2.0 4.0 0.00 0.00 0.00 99 1019.8
20260905070703 66 68 2.0 4.0 0.00 0.00 0.00 99 1019.9
20260905070624 66 65 2.0 4.0 0.00 0.00 0.00 99 1019.8
20260905070503 66 55 2.0 4.0 0.00 0.00 0.00 99 1019.7
20260905070403 66 47 1.0 2.0 0.00 0.00 0.00 99 1019.5
20260905070303 66 41 1.0 2.0 0.00 0.00 0.00 99 1019.5
20260905070224 66 35 1.0 2.0 0.00 0.00 0.00 99 1019.6
20260905070103 66 31 1.0 2.0 0.00 0.00 0.00 99 1019.6
20260905070004 66 24 1.0 2.0 0.00 0.00 0.00 99 1019.4
20260905065903 66 19 1.0 2.0 0.00 0.00 0.00 99 1019.4
20260905065803 66 15 1.0 2.0 0.00 0.00 0.00 99 1019.3
20260905065703 66 7 1.0 2.0 0.00 0.00 0.00 99 1019.5
20260905065603 66 358 1.0 3.0 0.00 0.00 0.00 99 1019.3
20260905065504 66 356 1.0 3.0 0.00 0.00 0.00 99 1019.5
20260905065403 66 356 1.0 3.0 0.00 0.00 0.00 99 1019.3
20260905065306 66 356 2.0 3.0 0.00 0.00 0.00 99 1019.3
20260905065203 66 357 2.0 3.0 0.00 0.00 0.00 99 1019.5
20260905065103 66 358 2.0 3.0 0.00 0.00 0.00 99 1019.5
20260905065003 66 358 2.0 3.0 0.00 0.00 0.00 99 1019.4
20260905064903 66 358 2.0 3.0 0.00 0.00 0.00 99 1019.3
20260905064803 66 359 2.0 3.0 0.00 0.00 0.00 99 1019.5
20260905064703 65 359 2.0 3.0 0.00 0.00 0.00 99 1019.5
20260905064604 65 360 2.0 3.0 0.00 0.00 0.00 99 1019.6
20260905064503 65 360 2.0 3.0 0.00 0.00 0.00 99 1019.7
20260905064403 65 1 2.0 3.0 0.00 0.00 0.00 99 1019.8
20260905064324 65 2 1.0 3.0 0.00 0.00 0.00 99 1019.7
20260905064224 65 4 1.0 3.0 0.00 0.00 0.00 99 1019.7
20260905064103 65 3 1.0 3.0 0.00 0.00 0.00 99 1019.7
20260905064003 65 1 1.0 3.0 0.00 0.00 0.00 99 1019.8
20260905063903 65 360 1.0 3.0 0.00 0.00 0.00 99 1019.8
20260905063803 65 360 1.0 3.0 0.00 0.00 0.00 99 1019.8
20260905063724 65 360 1.0 3.0 0.00 0.00 0.00 99 1019.8
20260905063624 65 2 1.0 2.0 0.00 0.00 0.00 99 1019.9
20260905063503 65 4 1.0 2.0 0.00 0.00 0.00 99 1019.8
20260905063424 65 4 1.0 2.0 0.00 0.00 0.00 99 1020.0
20260905063303 65 4 1.0 2.0 0.00 0.00 0.00 99 1020.0
20260905063224 65 4 1.0 2.0 0.00 0.00 0.00 99 1020.0
20260905063103 65 5 1.0 2.0 0.00 0.00 0.00 99 1020.0
20260905063003 65 5 1.0 2.0 0.00 0.00 0.00 99 1019.9
20260905062903 65 7 1.0 2.0 0.00 0.00 0.00 99 1020.1
20260905062803 65 12 0.0 1.0 0.00 0.00 0.00 99 1020.0
20260905062704 65 15 0.0 1.0 0.00 0.00 0.00 99 1020.0
20260905062603 65 20 0.0 1.0 0.00 0.00 0.00 99 1020.2
20260905062524 65 14 0.0 1.0 0.00 0.00 0.00 99 1020.0
20260905062403 65 20 0.0 1.0 0.00 0.00 0.00 99 1020.1
20260905062305 65 21 0.0 1.0 0.00 0.00 0.00 99 1020.0
20260905062203 65 21 0.0 1.0 0.00 0.00 0.00 99 1020.3
20260905062103 65 21 0.0 1.0 0.00 0.00 0.00 99 1020.1
20260905062024 65 21 0.0 1.0 0.00 0.00 0.00 99 1020.1
20260905061903 65 17 0.0 1.0 0.00 0.00 0.00 99 1020.3
20260905061803 65 17 0.0 1.0 0.00 0.00 0.00 99 1020.2
20260905061703 65 18 0.0 1.0 0.00 0.00 0.00 99 1020.1
20260905061603 65 18 0.0 1.0 0.00 0.00 0.00 99 1020.3
20260905061503 65 20 0.0 1.0 0.00 0.00 0.00 99 1020.2
20260905061403 65 19 0.0 1.0 0.00 0.00 0.00 99 1020.1
20260905061303 65 16 0.0 1.0 0.00 0.00 0.00 99 1020.3
20260905061203 65 13 0.0 1.0 0.00 0.00 0.00 99 1020.1
20260905061103 65 16 0.0 1.0 0.00 0.00 0.00 99 1020.1
20260905061003 65 22 0.0 1.0 0.00 0.00 0.00 99 1020.2
20260905060903 65 32 0.0 2.0 0.00 0.00 0.00 99 1020.3
20260905060803 65 40 0.0 2.0 0.00 0.00 0.00 99 1020.1
20260905060703 65 46 1.0 2.0 0.00 0.00 0.00 99 1020.2
20260905060603 65 44 1.0 2.0 0.00 0.00 0.00 99 1020.2
20260905060503 65 39 1.0 2.0 0.00 0.00 0.00 99 1020.2
20260905060403 65 38 1.0 2.0 0.00 0.00 0.00 99 1020.5
20260905060303 65 36 1.0 2.0 0.00 0.00 0.00 99 1020.3
20260905060203 65 35 1.0 2.0 0.00 0.00 0.00 99 1020.2
20260905060003 65 35 1.0 2.0 0.00 0.00 0.00 99 1020.2
20260905055903 65 32 1.0 2.0 0.00 0.00 0.00 99 1019.9
20260905055803 65 29 1.0 2.0 0.00 0.00 0.00 99 1020.2
20260905055704 65 35 1.0 2.0 0.00 0.00 0.00 99 1020.2
20260905055603 65 38 1.0 2.0 0.00 0.00 0.00 99 1020.1
20260905055503 65 42 1.0 2.0 0.00 0.00 0.00 99 1020.0
20260905055424 65 42 1.0 2.0 0.00 0.00 0.00 99 1020.0
20260905055306 65 45 1.0 2.0 0.00 0.00 0.00 99 1020.0
20260905055203 65 54 1.0 3.0 0.00 0.00 0.00 99 1020.0
20260905055124 65 57 1.0 3.0 0.00 0.00 0.00 99 1020.0
20260905055003 65 57 1.0 3.0 0.00 0.00 0.00 99 1019.9
20260905054903 65 55 1.0 3.0 0.00 0.00 0.00 99 1020.0
20260905054803 65 57 1.0 3.0 0.00 0.00 0.00 99 1019.8
20260905054703 65 57 1.0 3.0 0.00 0.00 0.00 99 1019.9
20260905054603 65 48 1.0 3.0 0.00 0.00 0.00 99 1020.0
20260905054503 65 47 1.0 3.0 0.00 0.00 0.00 99 1019.8
20260905054403 65 51 1.0 3.0 0.00 0.00 0.00 99 1019.6
20260905054303 65 53 1.0 3.0 0.00 0.00 0.00 99 1019.7
20260905054203 65 43 1.0 2.0 0.00 0.00 0.00 99 1019.6
20260905054103 65 37 1.0 2.0 0.00 0.00 0.00 99 1019.7
20260905054003 65 37 1.0 2.0 0.00 0.00 0.00 99 1019.7
20260905053924 65 34 1.0 2.0 0.00 0.00 0.00 99 1019.6
20260905053803 65 36 1.0 2.0 0.00 0.00 0.00 99 1019.6
20260905053703 65 35 1.0 2.0 0.00 0.00 0.00 99 1019.7
20260905053603 65 33 1.0 2.0 0.00 0.00 0.00 99 1020.0
20260905053503 65 33 1.0 2.0 0.00 0.00 0.00 99 1019.8
20260905053403 65 25 1.0 2.0 0.00 0.00 0.00 99 1019.9
20260905053303 65 13 0.0 1.0 0.00 0.00 0.00 99 1019.8
20260905053203 65 7 1.0 1.0 0.00 0.00 0.00 99 1019.8
20260905053103 65 3 1.0 2.0 0.00 0.00 0.00 99 1019.7
20260905053003 65 3 1.0 2.0 0.00 0.00 0.00 99 1019.7
20260905052903 65 3 1.0 2.0 0.00 0.00 0.00 99 1019.5
20260905052803 65 17 1.0 4.0 0.00 0.00 0.00 99 1019.6
20260905052703 65 31 1.0 4.0 0.00 0.00 0.00 99 1019.4
20260905052603 65 35 1.0 4.0 0.00 0.00 0.00 99 1019.6
20260905052503 65 44 1.0 4.0 0.00 0.00 0.00 99 1019.6
20260905052424 65 44 1.0 4.0 0.00 0.00 0.00 99 1019.8
20260905052306 65 37 1.0 4.0 0.00 0.00 0.00 99 1019.7
20260905052203 65 41 1.0 4.0 0.00 0.00 0.00 99 1019.7
20260905052103 65 43 1.0 4.0 0.00 0.00 0.00 99 1019.7
20260905052003 65 56 1.0 4.0 0.00 0.00 0.00 99 1019.6
20260905051903 65 63 1.0 4.0 0.00 0.00 0.00 99 1019.8
20260905051824 65 77 1.0 4.0 0.00 0.00 0.00 99 1020.0
20260905051703 65 43 1.0 2.0 0.00 0.00 0.00 99 1019.9
20260905051603 65 35 0.0 2.0 0.00 0.00 0.00 99 1019.8
20260905051503 65 22 0.0 1.0 0.00 0.00 0.00 99 1019.7
20260905051404 65 22 0.0 1.0 0.00 0.00 0.00 99 1019.5
20260905051303 65 27 0.0 1.0 0.00 0.00 0.00 99 1019.5
20260905051203 65 30 0.0 1.0 0.00 0.00 0.00 99 1019.6
20260905051103 65 36 0.0 1.0 0.00 0.00 0.00 99 1019.7
20260905051004 65 36 0.0 1.0 0.00 0.00 0.00 99 1019.8
20260905050903 65 36 0.0 1.0 0.00 0.00 0.00 99 1019.6
20260905050803 65 36 0.0 1.0 0.00 0.00 0.00 99 1019.6
20260905050703 65 36 0.0 1.0 0.00 0.00 0.00 99 1019.6
20260905050603 65 36 0.0 1.0 0.00 0.00 0.00 99 1019.7
20260905050503 65 36 0.0 1.0 0.00 0.00 0.00 99 1019.6
20260905050403 65 33 0.0 1.0 0.00 0.00 0.00 99 1019.7
20260905050324 65 0 0.0 0.0 0.00 0.00 0.00 99 1019.6
20260905050224 65 0 0.0 0.0 0.00 0.00 0.00 99 1019.8
20260905050103 65 0 0.0 0.0 0.00 0.00 0.00 99 1019.7
20260905050003 65 33 0.0 1.0 0.00 0.00 0.00 99 1019.7
20260905045903 65 33 0.0 1.0 0.00 0.00 0.00 99 1019.8
20260905045803 65 33 0.0 1.0 0.00 0.00 0.00 99 1019.9
20260905045724 65 33 0.0 1.0 0.00 0.00 0.00 99 1020.0
20260905045603 65 33 0.0 1.0 0.00 0.00 0.00 99 1019.7
20260905045503 65 32 0.0 1.0 0.00 0.00 0.00 99 1019.6
20260905045403 65 32 0.0 1.0 0.00 0.00 0.00 99 1019.6
20260905045324 65 32 0.0 1.0 0.00 0.00 0.00 99 1019.7
20260905045224 65 33 1.0 1.0 0.00 0.00 0.00 99 1019.8
20260905045103 65 33 1.0 2.0 0.00 0.00 0.00 99 1019.7
20260905045003 65 33 1.0 2.0 0.00 0.00 0.00 99 1019.9
20260905044903 65 33 1.0 2.0 0.00 0.00 0.00 99 1019.7
20260905044803 65 33 1.0 2.0 0.00 0.00 0.00 99 1019.9
20260905044703 65 34 0.0 2.0 0.00 0.00 0.00 99 1019.8
20260905044603 65 34 0.0 2.0 0.00 0.00 0.00 99 1019.7
20260905044503 65 34 0.0 2.0 0.00 0.00 0.00 99 1019.8
20260905044424 65 34 0.0 2.0 0.00 0.00 0.00 99 1019.7
20260905044303 65 35 0.0 2.0 0.00 0.00 0.00 99 1019.9
20260905044203 65 35 0.0 2.0 0.00 0.00 0.00 99 1019.8
20260905044124 65 35 0.0 2.0 0.00 0.00 0.00 99 1019.8
20260905044003 65 37 0.0 1.0 0.00 0.00 0.00 99 1019.8
20260905043924 65 37 0.0 1.0 0.00 0.00 0.00 99 1019.8
20260905043803 65 37 0.0 1.0 0.00 0.00 0.00 99 1019.9
20260905043703 65 35 0.0 1.0 0.00 0.00 0.00 99 1019.9
20260905043603 65 35 0.0 1.0 0.00 0.00 0.00 99 1020.0
20260905043524 65 29 0.0 1.0 0.00 0.00 0.00 99 1020.0
20260905043403 65 29 0.0 1.0 0.00 0.00 0.00 99 1020.0
20260905043303 65 23 1.0 2.0 0.00 0.00 0.00 99 1020.0
20260905043224 65 17 1.0 2.0 0.00 0.00 0.00 99 1019.9
20260905043103 65 15 1.0 2.0 0.00 0.00 0.00 99 1020.1
20260905043003 65 13 1.0 2.0 0.00 0.00 0.00 99 1019.9
20260905042924 65 10 1.0 2.0 0.00 0.00 0.00 99 1020.0
20260905042803 65 6 1.0 2.0 0.00 0.00 0.00 99 1019.9
20260905042703 65 5 1.0 2.0 0.00 0.00 0.00 99 1019.7
20260905042624 65 5 1.0 2.0 0.00 0.00 0.00 99 1019.8
20260905042503 65 6 1.0 2.0 0.00 0.00 0.00 99 1019.8
20260905042403 65 7 1.0 2.0 0.00 0.00 0.00 99 1019.8
20260905042306 65 7 1.0 2.0 0.00 0.00 0.00 99 1019.9
20260905042224 65 7 1.0 2.0 0.00 0.00 0.00 99 1019.8
20260905042103 65 8 1.0 2.0 0.00 0.00 0.00 99 1019.9
20260905042003 65 8 1.0 2.0 0.00 0.00 0.00 99 1019.9
20260905041903 65 8 1.0 2.0 0.00 0.00 0.00 99 1020.0
20260905041804 65 9 1.0 2.0 0.00 0.00 0.00 99 1019.9
20260905041703 65 11 1.0 2.0 0.00 0.00 0.00 99 1020.0
20260905041624 65 14 1.0 2.0 0.00 0.00 0.00 99 1020.0
20260905041503 65 14 1.0 2.0 0.00 0.00 0.00 99 1020.0
20260905041424 65 14 1.0 2.0 0.00 0.00 0.00 99 1020.1
20260905041324 65 16 1.0 2.0 0.00 0.00 0.00 99 1020.2
20260905041204 65 18 0.0 1.0 0.00 0.00 0.00 99 1020.0
20260905041124 65 20 0.0 1.0 0.00 0.00 0.00 99 1020.1
20260905041003 65 22 0.0 1.0 0.00 0.00 0.00 99 1020.1
20260905040903 65 26 0.0 1.0 0.00 0.00 0.00 99 1020.0
20260905040803 65 31 0.0 1.0 0.00 0.00 0.00 99 1020.2
20260905040703 65 32 0.0 1.0 0.00 0.00 0.00 99 1020.3
20260905040603 65 34 0.0 1.0 0.00 0.00 0.00 99 1020.3
20260905040524 65 0 0.0 0.0 0.00 0.00 0.00 99 1020.3
20260905040403 65 0 0.0 0.0 0.00 0.00 0.00 99 1020.4
20260905040304 65 0 0.0 0.0 0.00 0.00 0.00 99 1020.4
20260905040203 65 0 0.0 0.0 0.00 0.00 0.00 99 1020.3
20260905040103 65 0 0.0 0.0 0.00 0.00 0.00 99 1020.3
20260905040004 65 0 0.0 0.0 0.00 0.00 0.00 99 1020.3
20260905035924 65 0 0.0 0.0 0.00 0.00 0.00 99 1020.4
20260905035803 65 0 0.0 0.0 0.00 0.00 0.00 99 1020.3
20260905035703 65 38 0.0 1.0 0.00 0.00 0.00 99 1020.4
20260905035603 65 38 0.0 1.0 0.00 0.00 0.00 99 1020.2
20260905035503 65 35 0.0 1.0 0.00 0.00 0.00 99 1020.3
20260905035403 65 35 0.0 1.0 0.00 0.00 0.00 99 1020.5
20260905035306 65 35 0.0 1.0 0.00 0.00 0.00 99 1020.3
20260905035224 65 33 0.0 1.0 0.00 0.00 0.00 99 1020.2
20260905035103 65 32 0.0 1.0 0.00 0.00 0.00 99 1020.5
20260905035003 65 32 0.0 1.0 0.00 0.00 0.00 99 1020.2
20260905034903 65 32 0.0 1.0 0.00 0.00 0.00 99 1020.2
20260905034803 65 32 0.0 1.0 0.00 0.00 0.00 99 1020.3
20260905034703 65 30 0.0 1.0 0.00 0.00 0.00 99 1020.4
20260905034603 65 30 0.0 1.0 0.00 0.00 0.00 99 1020.5
20260905034503 65 30 0.0 1.0 0.00 0.00 0.00 99 1020.3
20260905034403 65 30 0.0 1.0 0.00 0.00 0.00 99 1020.4
20260905034324 65 28 0.0 1.0 0.00 0.00 0.00 99 1020.4
20260905034203 65 27 0.0 1.0 0.00 0.00 0.00 99 1020.4
20260905034103 65 27 0.0 1.0 0.00 0.00 0.00 99 1020.5
20260905034003 65 0 0.0 0.0 0.00 0.00 0.00 99 1020.2
20260905033924 65 29 0.0 1.0 0.00 0.00 0.00 99 1020.4
20260905033803 65 29 0.0 1.0 0.00 0.00 0.00 99 1020.2
20260905033703 65 24 0.0 1.0 0.00 0.00 0.00 99 1020.4
20260905033603 65 30 0.0 2.0 0.00 0.00 0.00 99 1020.3
20260905033503 65 31 0.0 2.0 0.00 0.00 0.00 99 1020.3
20260905033424 65 31 0.0 2.0 0.00 0.00 0.00 99 1020.2
20260905033303 65 31 0.0 2.0 0.00 0.00 0.00 99 1020.2
20260905033203 65 32 0.0 2.0 0.00 0.00 0.00 99 1020.5
20260905033103 65 33 1.0 2.0 0.00 0.00 0.00 99 1020.4
20260905033024 65 33 1.0 2.0 0.00 0.00 0.00 99 1020.6
20260905032903 65 33 1.0 2.0 0.00 0.00 0.00 99 1020.6
20260905032803 65 51 1.0 3.0 0.00 0.00 0.00 99 1020.5
20260905032703 65 57 1.0 3.0 0.00 0.00 0.00 99 1020.5
20260905032623 65 61 1.0 3.0 0.00 0.00 0.00 99 1020.5
20260905032503 65 66 1.0 3.0 0.00 0.00 0.00 99 1020.3
20260905032403 65 68 1.0 3.0 0.00 0.00 0.00 99 1020.6
20260905032306 65 75 2.0 3.0 0.00 0.00 0.00 99 1020.5
20260905032224 65 77 2.0 3.0 0.00 0.00 0.00 99 1020.6
20260905032102 65 77 2.0 3.0 0.00 0.00 0.00 99 1020.7
20260905032003 65 78 2.0 3.0 0.00 0.00 0.00 99 1020.4
20260905031902 65 76 2.0 4.0 0.00 0.00 0.00 99 1020.6
20260905031802 65 78 2.0 4.0 0.00 0.00 0.00 99 1020.4
20260905031702 65 73 2.0 4.0 0.00 0.00 0.00 99 1020.6
20260905031602 65 74 2.0 4.0 0.00 0.00 0.00 99 1020.4
20260905031524 65 73 2.0 4.0 0.00 0.00 0.00 99 1020.4
20260905031403 65 73 2.0 4.0 0.00 0.00 0.00 99 1020.4
20260905031302 65 67 2.0 4.0 0.00 0.00 0.00 99 1020.5
20260905031203 65 67 2.0 4.0 0.00 0.00 0.00 99 1020.4
20260905031103 65 67 2.0 4.0 0.00 0.00 0.00 99 1020.4
20260905031003 65 66 2.0 4.0 0.00 0.00 0.00 99 1020.4
20260905030903 65 62 2.0 4.0 0.00 0.00 0.00 99 1020.3
20260905030803 65 62 1.0 3.0 0.00 0.00 0.00 99 1020.3
20260905030724 65 59 1.0 3.0 0.00 0.00 0.00 99 1020.3
20260905030624 65 60 1.0 3.0 0.00 0.00 0.00 99 1020.2
20260905030503 65 52 1.0 2.0 0.00 0.00 0.00 99 1020.1
20260905030402 65 52 1.0 2.0 0.00 0.00 0.00 99 1020.3
20260905030303 65 52 1.0 2.0 0.00 0.00 0.00 99 1020.1
20260905030224 65 50 1.0 2.0 0.00 0.00 0.00 99 1020.2
20260905030124 65 49 1.0 2.0 0.00 0.00 0.00 99 1020.3
20260905030024 65 45 1.0 2.0 0.00 0.00 0.00 99 1020.2
20260905025903 65 45 1.0 2.0 0.00 0.00 0.00 99 1020.3
20260905025803 65 44 1.0 2.0 0.00 0.00 0.00 99 1020.4
20260905025703 65 43 1.0 2.0 0.00 0.00 0.00 99 1020.4
20260905025603 65 44 1.0 2.0 0.00 0.00 0.00 99 1020.4
20260905025503 65 44 1.0 2.0 0.00 0.00 0.00 99 1020.3
20260905025402 65 40 1.0 1.0 0.00 0.00 0.00 99 1020.4
20260905025306 65 40 0.0 1.0 0.00 0.00 0.00 99 1020.5
20260905025203 65 39 0.0 1.0 0.00 0.00 0.00 99 1020.2
20260905025102 65 40 0.0 1.0 0.00 0.00 0.00 99 1020.4
20260905025003 65 39 0.0 1.0 0.00 0.00 0.00 99 1020.1
20260905024903 65 38 0.0 1.0 0.00 0.00 0.00 99 1020.3
20260905024803 65 0 0.0 0.0 0.00 0.00 0.00 99 1020.4
20260905024724 65 0 0.0 0.0 0.00 0.00 0.00 99 1020.2
20260905024603 65 0 0.0 0.0 0.00 0.00 0.00 99 1020.5
20260905024503 65 37 0.0 1.0 0.00 0.00 0.00 99 1020.3
20260905024403 65 37 0.0 1.0 0.00 0.00 0.00 99 1020.3
20260905024302 65 37 0.0 1.0 0.00 0.00 0.00 99 1020.6
20260905024203 65 37 0.0 1.0 0.00 0.00 0.00 99 1020.5
20260905024103 65 36 0.0 1.0 0.00 0.00 0.00 99 1020.6
20260905024003 65 35 0.0 1.0 0.00 0.00 0.00 99 1020.4
20260905023924 65 35 0.0 1.0 0.00 0.00 0.00 99 1020.7
20260905023824 65 34 0.0 1.0 0.00 0.00 0.00 99 1020.6
20260905023703 65 33 0.0 1.0 0.00 0.00 0.00 99 1020.7
20260905023603 65 32 1.0 1.0 0.00 0.00 0.00 99 1020.6
20260905023503 65 31 1.0 1.0 0.00 0.00 0.00 99 1020.8
20260905023402 65 29 1.0 1.0 0.00 0.00 0.00 99 1020.9
20260905023303 65 28 1.0 1.0 0.00 0.00 0.00 99 1020.6
20260905023203 65 27 1.0 1.0 0.00 0.00 0.00 99 1020.8
20260905023103 65 27 1.0 1.0 0.00 0.00 0.00 99 1020.8
20260905023003 65 26 1.0 1.0 0.00 0.00 0.00 99 1020.7
20260905022903 65 26 1.0 1.0 0.00 0.00 0.00 99 1020.9
20260905022803 65 25 1.0 1.0 0.00 0.00 0.00 99 1020.8
20260905022703 65 25 0.0 1.0 0.00 0.00 0.00 99 1020.9
20260905022603 65 25 0.0 1.0 0.00 0.00 0.00 99 1020.9
20260905022503 65 25 0.0 1.0 0.00 0.00 0.00 99 1020.9
20260905022403 65 25 0.0 1.0 0.00 0.00 0.00 99 1020.8
20260905022306 65 25 0.0 1.0 0.00 0.00 0.00 99 1020.9
20260905022203 65 25 0.0 1.0 0.00 0.00 0.00 99 1020.8
20260905022103 65 25 0.0 1.0 0.00 0.00 0.00 99 1021.0
20260905022003 65 25 0.0 1.0 0.00 0.00 0.00 99 1020.9
20260905021903 65 25 0.0 1.0 0.00 0.00 0.00 99 1020.9
20260905021802 65 25 0.0 1.0 0.00 0.00 0.00 99 1021.1
20260905021703 65 25 0.0 1.0 0.00 0.00 0.00 99 1020.9
20260905021603 65 25 0.0 1.0 0.00 0.00 0.00 99 1021.1
20260905021503 65 25 0.0 1.0 0.00 0.00 0.00 99 1021.0
20260905021424 65 25 0.0 1.0 0.00 0.00 0.00 99 1021.0
20260905021303 65 25 0.0 1.0 0.00 0.00 0.00 99 1020.9
20260905021203 65 25 0.0 1.0 0.00 0.00 0.00 99 1021.0
20260905021103 65 24 0.0 1.0 0.00 0.00 0.00 99 1021.0
20260905021003 65 24 0.0 1.0 0.00 0.00 0.00 99 1021.0
20260905020903 65 24 0.0 1.0 0.00 0.00 0.00 99 1021.0
20260905020803 65 24 0.0 1.0 0.00 0.00 0.00 99 1020.9
20260905020702 65 24 0.0 1.0 0.00 0.00 0.00 99 1021.0
20260905020603 65 24 0.0 1.0 0.00 0.00 0.00 99 1020.9
20260905020503 65 24 0.0 1.0 0.00 0.00 0.00 99 1020.8
20260905020403 65 24 0.0 1.0 0.00 0.00 0.00 99 1020.9
20260905020303 65 24 0.0 1.0 0.00 0.00 0.00 99 1020.9
20260905020203 65 0 0.0 0.0 0.00 0.00 0.00 99 1020.8
20260905020003 65 0 0.0 0.0 0.00 0.00 0.00 99 1021.0
20260905015903 65 0 0.0 0.0 0.00 0.00 0.00 99 1021.0
20260905015802 65 0 0.0 0.0 0.00 0.00 0.00 99 1021.0
20260905015703 65 25 0.0 1.0 0.00 0.00 0.00 99 1021.0
20260905015603 65 25 0.0 1.0 0.00 0.00 0.00 99 1020.9
20260905015503 65 25 0.0 1.0 0.00 0.00 0.00 99 1021.0
20260905015403 65 25 0.0 1.0 0.00 0.00 0.00 99 1021.0
20260905015306 65 25 0.0 1.0 0.00 0.00 0.00 99 1021.0
20260905015203 65 25 0.0 1.0 0.00 0.00 0.00 99 1021.0
20260905015102 65 25 0.0 1.0 0.00 0.00 0.00 99 1021.2
20260905015003 65 25 0.0 1.0 0.00 0.00 0.00 99 1021.1
20260905014924 65 25 0.0 1.0 0.00 0.00 0.00 98 1021.2
20260905014824 65 25 0.0 1.0 0.00 0.00 0.00 98 1021.3
20260905014724 65 25 0.0 1.0 0.00 0.00 0.00 98 1021.2
20260905014624 65 25 0.0 1.0 0.00 0.00 0.00 98 1021.1
20260905014502 65 25 0.0 1.0 0.00 0.00 0.00 98 1021.3
20260905014403 65 25 0.0 1.0 0.00 0.00 0.00 98 1021.3
20260905014303 65 24 0.0 1.0 0.00 0.00 0.00 98 1021.2
20260905014203 65 24 0.0 1.0 0.00 0.00 0.00 98 1021.3
20260905014124 65 24 0.0 1.0 0.00 0.00 0.00 98 1021.3
20260905014003 65 24 0.0 1.0 0.00 0.00 0.00 98 1021.3
20260905013903 65 24 0.0 1.0 0.00 0.00 0.00 98 1021.3
20260905013802 65 24 0.0 1.0 0.00 0.00 0.00 98 1021.1
20260905013702 65 23 0.0 1.0 0.00 0.00 0.00 98 1021.2
20260905013624 65 23 0.0 1.0 0.00 0.00 0.00 98 1021.2
20260905013524 65 23 0.0 1.0 0.00 0.00 0.00 98 1021.0
20260905013403 65 22 0.0 1.0 0.00 0.00 0.00 98 1021.3
20260905013303 65 21 0.0 1.0 0.00 0.00 0.00 98 1021.1
20260905013203 65 21 0.0 1.0 0.00 0.00 0.00 98 1021.4
20260905013124 65 20 0.0 1.0 0.00 0.00 0.00 98 1021.3
20260905013003 65 20 0.0 1.0 0.00 0.00 0.00 98 1021.5
20260905012924 65 20 0.0 1.0 0.00 0.00 0.00 98 1021.3
20260905012803 65 18 0.0 1.0 0.00 0.00 0.00 98 1021.5
20260905012703 65 16 0.0 1.0 0.00 0.00 0.00 98 1021.2
20260905012603 65 14 0.0 1.0 0.00 0.00 0.00 98 1021.4
20260905012503 65 13 0.0 1.0 0.00 0.00 0.00 98 1021.2
20260905012403 65 11 0.0 1.0 0.00 0.00 0.00 98 1021.2
20260905012324 65 11 0.0 1.0 0.00 0.00 0.00 98 1021.4
20260905012203 65 10 0.0 1.0 0.00 0.00 0.00 98 1021.4
20260905012103 65 10 0.0 1.0 0.00 0.00 0.00 98 1021.3
20260905012003 65 10 0.0 1.0 0.00 0.00 0.00 98 1021.3
20260905011903 65 10 0.0 1.0 0.00 0.00 0.00 98 1021.3
20260905011803 65 13 0.0 1.0 0.00 0.00 0.00 98 1021.3
20260905011703 65 14 0.0 1.0 0.00 0.00 0.00 98 1021.1
20260905011603 65 15 0.0 1.0 0.00 0.00 0.00 98 1021.3
20260905011503 65 18 0.0 1.0 0.00 0.00 0.00 98 1021.3
20260905011403 65 22 0.0 1.0 0.00 0.00 0.00 98 1021.2
20260905011324 65 20 0.0 1.0 0.00 0.00 0.00 98 1021.3
20260905011203 65 21 0.0 1.0 0.00 0.00 0.00 98 1021.4
20260905011103 65 21 0.0 1.0 0.00 0.00 0.00 98 1021.4
20260905011003 65 21 0.0 1.0 0.00 0.00 0.00 98 1021.2
20260905010903 65 21 0.0 1.0 0.00 0.00 0.00 97 1021.4
20260905010803 65 19 0.0 1.0 0.00 0.00 0.00 97 1021.5
20260905010724 65 19 0.0 1.0 0.00 0.00 0.00 97 1021.5
20260905010603 65 19 0.0 1.0 0.00 0.00 0.00 97 1021.5
20260905010503 66 18 0.0 1.0 0.00 0.00 0.00 97 1021.5
20260905010403 66 13 0.0 1.0 0.00 0.00 0.00 97 1021.5
20260905010324 66 12 0.0 1.0 0.00 0.00 0.00 97 1021.4
20260905010224 66 12 0.0 1.0 0.00 0.00 0.00 97 1021.7
20260905010003 66 6 0.0 1.0 0.00 0.00 0.00 97 1021.6
20260905005924 66 4 0.0 1.0 0.00 0.00 0.00 97 1021.5
20260905005803 66 4 0.0 1.0 0.00 0.00 0.00 97 1021.6
20260905005703 66 3 0.0 1.0 0.00 0.00 0.00 97 1021.5
20260905005603 66 3 0.0 1.0 0.00 0.00 0.00 97 1021.5
20260905005503 66 2 0.0 1.0 0.00 0.00 0.00 97 1021.4
20260905005403 66 1 0.0 1.0 0.00 0.00 0.00 97 1021.6
20260905005306 66 360 0.0 1.0 0.00 0.00 0.00 97 1021.5
20260905005203 66 1 0.0 1.0 0.00 0.00 0.00 97 1021.6
20260905005124 66 360 0.0 1.0 0.00 0.00 0.00 97 1021.5
20260905005003 66 360 0.0 1.0 0.00 0.00 0.00 97 1021.6
20260905004903 66 360 1.0 1.0 0.00 0.00 0.00 97 1021.7
20260905004803 66 358 1.0 1.0 0.00 0.00 0.00 97 1021.6
20260905004703 66 358 1.0 1.0 0.00 0.00 0.00 97 1021.7
20260905004603 66 358 1.0 1.0 0.00 0.00 0.00 97 1021.6
20260905004524 66 358 1.0 1.0 0.00 0.00 0.00 97 1021.6
20260905004403 66 359 1.0 1.0 0.00 0.00 0.00 97 1021.5
20260905004303 66 358 1.0 2.0 0.00 0.00 0.00 97 1021.6
20260905004203 66 358 1.0 2.0 0.00 0.00 0.00 97 1021.4
20260905004103 66 358 1.0 2.0 0.00 0.00 0.00 97 1021.6
20260905004003 66 358 1.0 3.0 0.00 0.00 0.00 97 1021.6
20260905003903 66 358 1.0 3.0 0.00 0.00 0.00 97 1021.6
20260905003803 66 358 1.0 3.0 0.00 0.00 0.00 97 1021.7
20260905003703 66 359 1.0 3.0 0.00 0.00 0.00 97 1021.6
20260905003624 66 358 2.0 3.0 0.00 0.00 0.00 97 1021.6
20260905003503 66 358 2.0 3.0 0.00 0.00 0.00 97 1021.8
20260905003403 66 358 2.0 3.0 0.00 0.00 0.00 97 1021.6
20260905003303 66 358 2.0 3.0 0.00 0.00 0.00 97 1021.5
20260905003203 66 359 2.0 3.0 0.00 0.00 0.00 97 1021.4
20260905003103 66 359 1.0 3.0 0.00 0.00 0.00 98 1021.6
20260905003024 66 359 1.0 3.0 0.00 0.00 0.00 98 1021.5
20260905002903 66 360 1.0 3.0 0.00 0.00 0.00 98 1021.6
20260905002803 66 359 1.0 3.0 0.00 0.00 0.00 98 1021.6
20260905002703 66 360 1.0 2.0 0.00 0.00 0.00 98 1021.6
20260905002603 66 1 1.0 2.0 0.00 0.00 0.00 98 1021.8
20260905002524 66 2 1.0 2.0 0.00 0.00 0.00 98 1021.9
20260905002424 66 3 0.0 2.0 0.00 0.00 0.00 98 1022.0
20260905002324 66 3 0.0 2.0 0.00 0.00 0.00 98 1021.9
20260905002203 66 2 0.0 2.0 0.00 0.00 0.00 98 1022.0
20260905002103 66 2 0.0 2.0 0.00 0.00 0.00 98 1021.9
20260905002003 66 359 0.0 2.0 0.00 0.00 0.00 98 1022.0
20260905001903 66 356 0.0 1.0 0.00 0.00 0.00 98 1022.0
20260905001803 66 356 0.0 1.0 0.00 0.00 0.00 98 1022.1
20260905001703 66 356 0.0 1.0 0.00 0.00 0.00 98 1022.1
20260905001603 66 356 0.0 1.0 0.00 0.00 0.00 98 1021.9
20260905001503 66 356 0.0 1.0 0.00 0.00 0.00 98 1022.1
20260905001403 66 356 0.0 1.0 0.00 0.00 0.00 98 1022.1
20260905001324 66 356 0.0 1.0 0.00 0.00 0.00 98 1022.1
20260905001203 66 355 0.0 1.0 0.00 0.00 0.00 98 1022.4
20260905001103 66 356 0.0 1.0 0.00 0.00 0.00 98 1022.1
20260905001003 66 355 0.0 1.0 0.00 0.00 0.00 98 1022.3
20260905000903 66 355 0.0 1.0 0.00 0.00 0.00 98 1022.3
20260905000803 65 355 0.0 1.0 0.00 0.00 0.00 98 1022.2
20260905000703 66 355 0.0 1.0 0.00 0.00 0.00 98 1022.3
20260905000603 66 355 0.0 1.0 0.00 0.00 0.00 98 1022.3
20260905000524 66 356 1.0 1.0 0.00 0.00 0.00 98 1022.3
20260905000403 66 356 1.0 2.0 0.00 0.00 0.00 98 1022.2
20260905000303 66 357 1.0 2.0 0.00 0.00 0.00 98 1022.2
20260905000204 66 358 1.0 2.0 0.00 0.00 0.00 98 1022.3
20260905000124 66 359 1.0 2.0 0.00 0.00 0.00 98 1022.0
20260905000003 66 360 1.0 2.0 0.00 0.00 0.00 98 1022.0
20260904235903 66 360 1.0 2.0 0.00 0.00 0.00 98 1022.1
20260904235824 66 360 1.0 2.0 0.00 0.00 0.00 98 1022.1
20260904235703 66 1 1.0 2.0 0.00 0.00 0.00 98 1022.1
20260904235624 66 1 1.0 2.0 0.00 0.00 0.00 98 1021.9
20260904235503 66 1 1.0 2.0 0.00 0.00 0.00 98 1022.1
20260904235403 66 2 1.0 2.0 0.00 0.00 0.00 98 1022.2
20260904235306 66 4 0.0 2.0 0.00 0.00 0.00 98 1022.2
20260904235203 66 4 0.0 1.0 0.00 0.00 0.00 98 1022.3
20260904235103 66 4 0.0 1.0 0.00 0.00 0.00 98 1022.4
20260904235003 66 4 0.0 1.0 0.00 0.00 0.00 98 1022.6
20260904234924 66 4 0.0 1.0 0.00 0.00 0.00 98 1022.6
20260904234803 66 0 0.0 0.0 0.00 0.00 0.00 98 1022.3
20260904234703 66 0 0.0 0.0 0.00 0.00 0.00 98 1022.6
20260904234603 66 0 0.0 0.0 0.00 0.00 0.00 98 1022.4
20260904234503 66 0 0.0 0.0 0.00 0.00 0.00 98 1022.5
20260904234403 66 4 0.0 1.0 0.00 0.00 0.00 98 1022.5
20260904234303 66 4 0.0 1.0 0.00 0.00 0.00 98 1022.5
20260904234203 66 4 0.0 1.0 0.00 0.00 0.00 98 1022.5
20260904234103 66 4 0.0 1.0 0.00 0.00 0.00 98 1022.6
20260904234003 66 4 0.0 1.0 0.00 0.00 0.00 98 1022.6
20260904233924 66 4 0.0 1.0 0.00 0.00 0.00 98 1022.5
20260904233803 66 4 0.0 1.0 0.00 0.00 0.00 98 1022.6
20260904233703 66 4 0.0 1.0 0.00 0.00 0.00 98 1022.7
20260904233603 66 4 0.0 1.0 0.00 0.00 0.00 98 1022.4
20260904233503 66 4 0.0 1.0 0.00 0.00 0.00 98 1022.6
20260904233403 66 4 0.0 1.0 0.00 0.00 0.00 98 1022.4
20260904233324 66 4 0.0 1.0 0.00 0.00 0.00 98 1022.6
20260904233203 66 4 0.0 1.0 0.00 0.00 0.00 98 1022.4
20260904233103 66 4 0.0 1.0 0.00 0.00 0.00 98 1022.6
20260904233003 66 4 0.0 1.0 0.00 0.00 0.00 98 1022.6
20260904232924 66 5 0.0 1.0 0.00 0.00 0.00 98 1022.5
20260904232803 66 0 0.0 0.0 0.00 0.00 0.00 98 1022.4
20260904232703 66 0 0.0 0.0 0.00 0.00 0.00 98 1022.5
20260904232603 66 0 0.0 0.0 0.00 0.00 0.00 98 1022.5
20260904232524 65 0 0.0 0.0 0.00 0.00 0.00 98 1022.5
20260904232424 65 0 0.0 0.0 0.00 0.00 0.00 98 1022.6
20260904232306 65 0 0.0 0.0 0.00 0.00 0.00 98 1022.6
20260904232203 65 0 0.0 0.0 0.00 0.00 0.00 98 1022.7
20260904232103 65 0 0.0 0.0 0.00 0.00 0.00 98 1022.6
20260904232003 65 0 0.0 0.0 0.00 0.00 0.00 98 1022.5
20260904231903 65 0 0.0 0.0 0.00 0.00 0.00 98 1022.7
20260904231803 65 0 0.0 0.0 0.00 0.00 0.00 98 1022.7
20260904231703 65 0 0.0 0.0 0.00 0.00 0.00 98 1022.7
20260904231603 65 0 0.0 0.0 0.00 0.00 0.00 98 1022.6
20260904231503 65 0 0.0 0.0 0.00 0.00 0.00 98 1022.7
20260904231403 65 0 0.0 0.0 0.00 0.00 0.00 98 1022.7
20260904231303 65 5 0.0 1.0 0.00 0.00 0.00 97 1022.6
20260904231203 65 4 0.0 1.0 0.00 0.00 0.00 97 1022.8
20260904231103 65 4 0.0 1.0 0.00 0.00 0.00 97 1022.9
20260904231024 65 4 0.0 1.0 0.00 0.00 0.00 97 1023.0
20260904230903 65 4 0.0 1.0 0.00 0.00 0.00 97 1022.8
20260904230803 65 4 0.0 1.0 0.00 0.00 0.00 97 1022.7
20260904230703 65 4 0.0 1.0 0.00 0.00 0.00 97 1022.7
20260904230603 65 4 0.0 1.0 0.00 0.00 0.00 97 1022.9
20260904230503 65 4 0.0 1.0 0.00 0.00 0.00 97 1022.9
20260904230403 65 4 0.0 1.0 0.00 0.00 0.00 97 1022.7
20260904230303 65 4 0.0 1.0 0.00 0.00 0.00 97 1022.6
20260904230203 65 0 0.0 0.0 0.00 0.00 0.00 97 1022.8
20260904230003 65 0 0.0 0.0 0.00 0.00 0.00 97 1022.7
20260904225924 65 0 0.0 0.0 0.00 0.00 0.00 97 1022.8
20260904225803 65 0 0.0 0.0 0.00 0.00 0.00 97 1022.8
20260904225703 65 0 0.0 0.0 0.00 0.00 0.00 97 1022.8
20260904225603 65 4 0.0 1.0 0.00 0.00 0.00 97 1022.8
20260904225503 65 4 0.0 1.0 0.00 0.00 0.00 97 1022.8
20260904225424 65 4 0.0 1.0 0.00 0.00 0.00 97 1022.8
20260904225305 65 3 0.0 1.0 0.00 0.00 0.00 97 1022.6
20260904225224 65 3 0.0 1.0 0.00 0.00 0.00 97 1022.7
20260904225103 65 3 0.0 1.0 0.00 0.00 0.00 97 1022.8
20260904225003 65 3 0.0 1.0 0.00 0.00 0.00 97 1022.8
20260904224903 65 3 0.0 1.0 0.00 0.00 0.00 97 1022.8
20260904224803 65 3 0.0 1.0 0.00 0.00 0.00 97 1022.9
20260904224724 65 3 0.0 1.0 0.00 0.00 0.00 97 1022.8
20260904224624 66 3 0.0 1.0 0.00 0.00 0.00 97 1022.7
20260904224503 66 3 0.0 1.0 0.00 0.00 0.00 97 1022.8
20260904224424 66 2 0.0 1.0 0.00 0.00 0.00 97 1022.7
20260904224303 65 2 0.0 1.0 0.00 0.00 0.00 97 1022.7
20260904224203 65 0 0.0 0.0 0.00 0.00 0.00 97 1022.8
20260904224103 65 0 0.0 0.0 0.00 0.00 0.00 96 1022.7
20260904224003 65 0 0.0 0.0 0.00 0.00 0.00 96 1022.5
20260904223903 65 0 0.0 0.0 0.00 0.00 0.00 96 1022.8
20260904223824 65 0 0.0 0.0 0.00 0.00 0.00 96 1022.9
20260904223703 66 0 0.0 0.0 0.00 0.00 0.00 96 1022.7
20260904223603 66 0 0.0 0.0 0.00 0.00 0.00 96 1022.8
20260904223503 66 0 0.0 0.0 0.00 0.00 0.00 96 1022.6
20260904223403 66 0 0.0 0.0 0.00 0.00 0.00 96 1022.6
20260904223324 66 0 0.0 0.0 0.00 0.00 0.00 96 1022.7
20260904223203 66 0 0.0 0.0 0.00 0.00 0.00 96 1022.8
20260904223103 66 0 0.0 0.0 0.00 0.00 0.00 96 1022.7
20260904223003 66 0 0.0 0.0 0.00 0.00 0.00 96 1022.8
20260904222924 66 0 0.0 0.0 0.00 0.00 0.00 96 1022.7
20260904222803 66 0 0.0 0.0 0.00 0.00 0.00 96 1022.7
20260904222724 66 0 0.0 0.0 0.00 0.00 0.00 96 1022.7
20260904222603 66 0 0.0 0.0 0.00 0.00 0.00 96 1022.7
20260904222503 66 0 0.0 0.0 0.00 0.00 0.00 96 1022.5
20260904222403 66 0 0.0 0.0 0.00 0.00 0.00 96 1022.6
20260904222306 66 0 0.0 0.0 0.00 0.00 0.00 96 1022.6
20260904222203 66 0 0.0 0.0 0.00 0.00 0.00 96 1022.5
20260904222103 66 0 0.0 0.0 0.00 0.00 0.00 96 1022.6
20260904222003 66 0 0.0 0.0 0.00 0.00 0.00 96 1022.6
20260904221903 66 0 0.0 0.0 0.00 0.00 0.00 96 1022.5
20260904221803 66 0 0.0 0.0 0.00 0.00 0.00 96 1022.6
20260904221703 66 0 0.0 0.0 0.00 0.00 0.00 96 1022.7
20260904221603 66 0 0.0 0.0 0.00 0.00 0.00 96 1022.7
20260904221503 66 0 0.0 0.0 0.00 0.00 0.00 96 1022.7
20260904221403 66 0 0.0 0.0 0.00 0.00 0.00 96 1022.8
20260904221303 66 0 0.0 0.0 0.00 0.00 0.00 96 1022.6
20260904221224 66 0 0.0 0.0 0.00 0.00 0.00 96 1022.8
20260904221103 66 0 0.0 0.0 0.00 0.00 0.00 96 1022.8
20260904221003 66 0 0.0 0.0 0.00 0.00 0.00 96 1022.7
20260904220903 66 0 0.0 0.0 0.00 0.00 0.00 96 1022.8
20260904220803 66 1 0.0 1.0 0.00 0.00 0.00 96 1022.8
20260904220703 67 1 0.0 1.0 0.00 0.00 0.00 96 1022.9
20260904220603 67 1 0.0 1.0 0.00 0.00 0.00 95 1023.0
20260904220503 66 1 0.0 1.0 0.00 0.00 0.00 95 1022.6
20260904220403 66 1 1.0 1.0 0.00 0.00 0.00 95 1022.8
20260904220303 66 1 1.0 1.0 0.00 0.00 0.00 95 1022.8
20260904220203 66 1 1.0 1.0 0.00 0.00 0.00 95 1022.9
20260904220024 67 1 1.0 1.0 0.00 0.00 0.00 95 1022.6
20260904215903 67 1 1.0 1.0 0.00 0.00 0.00 95 1022.7
20260904215803 67 1 1.0 1.0 0.00 0.00 0.00 95 1022.7
20260904215703 67 1 1.0 1.0 0.00 0.00 0.00 95 1022.7
20260904215603 67 1 1.0 1.0 0.00 0.00 0.00 95 1022.5
20260904215503 67 1 1.0 1.0 0.00 0.00 0.00 95 1022.6
20260904215403 67 1 1.0 1.0 0.00 0.00 0.00 95 1022.7
20260904215305 67 2 0.0 1.0 0.00 0.00 0.00 95 1022.6
20260904215203 67 6 0.0 1.0 0.00 0.00 0.00 95 1022.8
20260904215103 67 9 0.0 1.0 0.00 0.00 0.00 95 1022.4
20260904215003 67 10 0.0 1.0 0.00 0.00 0.00 95 1022.7
20260904214903 67 11 0.0 1.0 0.00 0.00 0.00 95 1022.4
20260904214824 67 12 0.0 1.0 0.00 0.00 0.00 95 1022.7
20260904214703 67 12 0.0 1.0 0.00 0.00 0.00 95 1022.6
20260904214603 67 14 0.0 1.0 0.00 0.00 0.00 95 1022.7
20260904214503 67 16 0.0 1.0 0.00 0.00 0.00 95 1022.5
20260904214403 67 16 1.0 1.0 0.00 0.00 0.00 95 1022.6
20260904214303 67 16 1.0 1.0 0.00 0.00 0.00 95 1022.5
20260904214203 67 16 1.0 1.0 0.00 0.00 0.00 95 1022.5
20260904214103 67 17 1.0 1.0 0.00 0.00 0.00 95 1022.6
20260904214003 67 17 1.0 1.0 0.00 0.00 0.00 95 1022.7
20260904213903 67 17 1.0 1.0 0.00 0.00 0.00 95 1022.4
20260904213803 67 17 1.0 1.0 0.00 0.00 0.00 95 1022.5
20260904213703 67 17 1.0 1.0 0.00 0.00 0.00 95 1022.5
20260904213603 67 17 1.0 1.0 0.00 0.00 0.00 95 1022.4
20260904213503 67 17 1.0 1.0 0.00 0.00 0.00 95 1022.5
20260904213403 67 17 0.0 1.0 0.00 0.00 0.00 95 1022.5
20260904213303 67 17 0.0 1.0 0.00 0.00 0.00 95 1022.4
20260904213203 67 17 0.0 1.0 0.00 0.00 0.00 95 1022.5
20260904213103 66 17 0.0 1.0 0.00 0.00 0.00 95 1022.5
20260904213003 66 17 0.0 1.0 0.00 0.00 0.00 95 1022.5
20260904212903 66 17 0.0 1.0 0.00 0.00 0.00 95 1022.5
20260904212803 66 0 0.0 0.0 0.00 0.00 0.00 95 1022.5
20260904212724 66 0 0.0 0.0 0.00 0.00 0.00 95 1022.6
20260904212603 66 0 0.0 0.0 0.00 0.00 0.00 95 1022.5
20260904212503 66 0 0.0 0.0 0.00 0.00 0.00 95 1022.7
20260904212403 66 0 0.0 0.0 0.00 0.00 0.00 95 1022.8
20260904212306 66 0 0.0 0.0 0.00 0.00 0.00 95 1022.8
20260904212203 66 0 0.0 0.0 0.00 0.00 0.00 95 1022.7
20260904212103 66 0 0.0 0.0 0.00 0.00 0.00 95 1022.8
20260904212003 66 0 0.0 0.0 0.00 0.00 0.00 95 1022.8
20260904211903 66 0 0.0 0.0 0.00 0.00 0.00 95 1022.6
20260904211803 66 0 0.0 0.0 0.00 0.00 0.00 95 1022.7
20260904211724 66 0 0.0 0.0 0.00 0.00 0.00 95 1022.6
20260904211603 66 0 0.0 0.0 0.00 0.00 0.00 95 1022.7
20260904211503 66 0 0.0 0.0 0.00 0.00 0.00 95 1022.8
20260904211403 66 0 0.0 0.0 0.00 0.00 0.00 95 1022.8
20260904211303 67 0 0.0 0.0 0.00 0.00 0.00 95 1022.8
20260904211204 67 0 0.0 0.0 0.00 0.00 0.00 95 1022.8
20260904211103 67 17 0.0 1.0 0.00 0.00 0.00 95 1022.8
20260904211003 67 17 0.0 1.0 0.00 0.00 0.00 95 1023.0
20260904210903 67 17 0.0 1.0 0.00 0.00 0.00 95 1022.8
20260904210803 67 17 0.0 1.0 0.00 0.00 0.00 95 1022.8
20260904210703 67 17 0.0 1.0 0.00 0.00 0.00 95 1022.9
20260904210603 67 17 0.0 1.0 0.00 0.00 0.00 95 1022.8
20260904210503 67 17 0.0 1.0 0.00 0.00 0.00 95 1022.7
20260904210403 67 17 0.0 1.0 0.00 0.00 0.00 95 1023.0
20260904210303 67 17 0.0 1.0 0.00 0.00 0.00 95 1022.8
20260904210203 67 17 0.0 1.0 0.00 0.00 0.00 95 1023.1
20260904210103 67 0 0.0 0.0 0.00 0.00 0.00 95 1022.9
20260904210024 67 0 0.0 0.0 0.00 0.00 0.00 95 1022.8
20260904205903 67 0 0.0 0.0 0.00 0.00 0.00 95 1022.9
20260904205803 67 0 0.0 0.0 0.00 0.00 0.00 95 1023.0
20260904205703 67 0 0.0 0.0 0.00 0.00 0.00 95 1023.1
20260904205603 67 0 0.0 0.0 0.00 0.00 0.00 95 1023.1
20260904205503 67 0 0.0 0.0 0.00 0.00 0.00 95 1023.2
20260904205424 67 0 0.0 0.0 0.00 0.00 0.00 95 1022.9
20260904205305 67 0 0.0 0.0 0.00 0.00 0.00 95 1023.0
20260904205203 67 0 0.0 0.0 0.00 0.00 0.00 95 1023.0
20260904205103 67 0 0.0 0.0 0.00 0.00 0.00 95 1022.9
20260904205003 67 0 0.0 0.0 0.00 0.00 0.00 95 1022.9
20260904204903 67 0 0.0 0.0 0.00 0.00 0.00 95 1022.8
20260904204803 67 0 0.0 0.0 0.00 0.00 0.00 95 1022.9
20260904204724 67 0 0.0 0.0 0.00 0.00 0.00 95 1023.0
20260904204603 67 17 0.0 1.0 0.00 0.00 0.00 95 1022.9
20260904204503 67 17 0.0 1.0 0.00 0.00 0.00 95 1022.8
20260904204424 67 17 0.0 1.0 0.00 0.00 0.00 95 1022.9
20260904204303 67 17 0.0 1.0 0.00 0.00 0.00 95 1023.0
20260904204203 67 18 0.0 1.0 0.00 0.00 0.00 95 1022.7
20260904204103 67 18 0.0 1.0 0.00 0.00 0.00 95 1022.9
20260904204003 67 18 0.0 1.0 0.00 0.00 0.00 95 1023.1
20260904203903 67 18 0.0 1.0 0.00 0.00 0.00 95 1022.8
20260904203803 67 18 0.0 1.0 0.00 0.00 0.00 95 1023.0
20260904203703 67 18 0.0 1.0 0.00 0.00 0.00 95 1023.0
20260904203603 67 18 0.0 1.0 0.00 0.00 0.00 95 1023.0
20260904203503 67 20 0.0 1.0 0.00 0.00 0.00 95 1022.9
20260904203403 67 20 0.0 1.0 0.00 0.00 0.00 95 1022.9
20260904203303 67 20 0.0 1.0 0.00 0.00 0.00 95 1022.9
20260904203203 67 0 0.0 0.0 0.00 0.00 0.00 95 1023.0
20260904203103 67 0 0.0 0.0 0.00 0.00 0.00 95 1023.0
20260904203003 67 0 0.0 0.0 0.00 0.00 0.00 95 1022.9
20260904202903 67 0 0.0 0.0 0.00 0.00 0.00 95 1022.8
20260904202824 67 0 0.0 0.0 0.00 0.00 0.00 95 1022.7
20260904202703 67 0 0.0 0.0 0.00 0.00 0.00 94 1022.8
20260904202603 67 0 0.0 0.0 0.00 0.00 0.00 94 1022.8
20260904202503 67 0 0.0 0.0 0.00 0.00 0.00 94 1022.8
20260904202403 67 0 0.0 0.0 0.00 0.00 0.00 94 1022.8
20260904202305 67 0 0.0 0.0 0.00 0.00 0.00 94 1022.8
20260904202203 67 0 0.0 0.0 0.00 0.00 0.00 94 1022.8
20260904202103 67 0 0.0 0.0 0.00 0.00 0.00 94 1022.6
20260904202025 67 0 0.0 0.0 0.00 0.00 0.00 94 1022.8
20260904201903 67 0 0.0 0.0 0.00 0.00 0.00 94 1022.7
20260904201824 67 0 0.0 0.0 0.00 0.00 0.00 94 1022.7
20260904201703 67 0 0.0 0.0 0.00 0.00 0.00 94 1022.7
20260904201603 67 0 0.0 0.0 0.00 0.00 0.00 94 1022.7
20260904201503 67 0 0.0 0.0 0.00 0.00 0.00 94 1022.8
20260904201403 67 0 0.0 0.0 0.00 0.00 0.00 94 1022.6
20260904201304 67 0 0.0 0.0 0.00 0.00 0.00 94 1022.7
20260904201203 67 0 0.0 0.0 0.00 0.00 0.00 94 1022.8
20260904201103 67 0 0.0 0.0 0.00 0.00 0.00 94 1022.9
20260904201003 67 24 0.0 1.0 0.00 0.00 0.00 94 1022.7
20260904200903 67 22 0.0 1.0 0.00 0.00 0.00 94 1022.6
20260904200803 67 19 0.0 1.0 0.00 0.00 0.00 94 1022.7
20260904200703 67 19 0.0 1.0 0.00 0.00 0.00 94 1022.7
20260904200624 67 17 0.0 1.0 0.00 0.00 0.00 94 1022.7
20260904200503 67 17 0.0 1.0 0.00 0.00 0.00 94 1022.5
20260904200403 67 14 0.0 1.0 0.00 0.00 0.00 94 1022.8
20260904200324 67 14 0.0 1.0 0.00 0.00 0.00 94 1022.6
20260904200224 67 14 0.0 1.0 0.00 0.00 0.00 94 1022.6
20260904200104 67 12 0.0 1.0 0.00 0.00 0.00 94 1022.6
20260904200003 67 7 0.0 1.0 0.00 0.00 0.00 94 1022.7
20260904195903 67 4 0.0 1.0 0.00 0.00 0.00 94 1022.8
20260904195804 67 3 0.0 1.0 0.00 0.00 0.00 94 1022.6
20260904195703 67 3 0.0 1.0 0.00 0.00 0.00 94 1022.8
20260904195603 67 1 0.0 1.0 0.00 0.00 0.00 94 1022.7
20260904195504 67 1 0.0 1.0 0.00 0.00 0.00 93 1022.6
20260904195403 67 1 0.0 1.0 0.00 0.00 0.00 93 1022.6
20260904195329 67 1 0.0 1.0 0.00 0.00 0.00 93 1022.8
20260904195203 67 3 0.0 1.0 0.00 0.00 0.00 93 1022.8
20260904195103 67 4 0.0 1.0 0.00 0.00 0.00 93 1022.5
20260904195003 67 4 0.0 1.0 0.00 0.00 0.00 93 1022.7
20260904194903 68 5 0.0 1.0 0.00 0.00 0.00 93 1022.7
20260904194803 68 6 0.0 1.0 0.00 0.00 0.00 93 1022.8
20260904194704 68 6 0.0 1.0 0.00 0.00 0.00 93 1022.7
20260904194603 68 6 0.0 1.0 0.00 0.00 0.00 93 1022.6
20260904194503 68 6 0.0 1.0 0.00 0.00 0.00 93 1022.5
20260904194403 68 6 0.0 1.0 0.00 0.00 0.00 93 1022.6
20260904194303 68 6 0.0 1.0 0.00 0.00 0.00 93 1022.6
20260904194224 68 6 0.0 1.0 0.00 0.00 0.00 92 1022.5
20260904194103 68 6 0.0 1.0 0.00 0.00 0.00 92 1022.7
20260904194003 68 0 0.0 0.0 0.00 0.00 0.00 92 1022.5
20260904193903 68 0 0.0 0.0 0.00 0.00 0.00 92 1022.4
20260904193803 68 0 0.0 0.0 0.00 0.00 0.00 92 1022.3
20260904193703 68 0 0.0 0.0 0.00 0.00 0.00 92 1022.3
20260904193603 68 0 0.0 0.0 0.00 0.00 0.00 92 1022.4
20260904193503 68 0 0.0 0.0 0.00 0.00 0.00 92 1022.4
20260904193403 68 0 0.0 0.0 0.00 0.00 0.00 92 1022.4
20260904193303 68 0 0.0 0.0 0.00 0.00 0.00 92 1022.4
20260904193203 68 0 0.0 0.0 0.00 0.00 0.00 91 1022.3
20260904193103 68 0 0.0 0.0 0.00 0.00 0.00 91 1022.4
20260904193024 69 6 0.0 1.0 0.00 0.00 0.00 91 1022.5
20260904192903 69 6 0.0 1.0 0.00 0.00 0.00 91 1022.3
20260904192804 69 6 0.0 1.0 0.00 0.00 0.00 91 1022.4
20260904192703 69 6 0.0 1.0 0.00 0.00 0.00 91 1022.3
20260904192603 69 6 0.0 1.0 0.00 0.00 0.00 91 1022.3
20260904192503 69 6 0.0 1.0 0.00 0.00 0.00 91 1022.4
20260904192403 69 5 0.0 1.0 0.00 0.00 0.00 91 1022.4
20260904192306 69 5 0.0 1.0 0.00 0.00 0.00 91 1022.4
20260904192203 69 5 0.0 1.0 0.00 0.00 0.00 90 1022.3
20260904192103 69 5 0.0 1.0 0.00 0.00 0.00 90 1022.4
20260904192024 69 5 0.0 1.0 0.00 0.00 0.00 90 1022.3
20260904191903 69 5 0.0 1.0 0.00 0.00 0.00 90 1022.4
20260904191804 69 5 0.0 1.0 0.00 0.00 0.00 90 1022.4
20260904191703 69 5 0.0 1.0 0.00 0.00 0.00 90 1022.2
20260904191624 69 5 0.0 1.0 0.00 0.00 0.00 90 1022.4
20260904191524 69 5 0.0 1.0 0.00 0.00 0.00 90 1022.3
20260904191403 69 5 0.0 1.0 0.00 0.00 0.00 90 1022.5
20260904191304 69 5 0.0 1.0 0.00 0.00 0.00 89 1022.4
20260904191224 69 5 0.0 1.0 0.00 0.00 0.00 89 1022.3
20260904191103 69 5 0.0 1.0 0.00 0.00 0.00 89 1022.4
20260904191024 69 5 0.0 1.0 0.00 0.00 0.00 89 1022.3
20260904190924 69 359 0.0 1.0 0.00 0.00 0.00 89 1022.3
20260904190804 70 355 0.0 1.0 0.00 0.00 0.00 89 1022.3
20260904190703 70 350 0.0 2.0 0.00 0.00 0.00 89 1022.2
20260904190603 70 350 0.0 2.0 0.00 0.00 0.00 88 1022.2
20260904190504 70 328 1.0 3.0 0.00 0.00 0.00 88 1022.2
20260904190403 70 331 1.0 3.0 0.00 0.00 0.00 88 1022.2
20260904190324 70 333 1.0 3.0 0.00 0.00 0.00 88 1022.1
20260904190203 70 333 1.0 3.0 0.00 0.00 0.00 88 1022.2
20260904190003 70 330 1.0 3.0 0.00 0.00 0.00 88 1022.2
20260904185903 70 330 1.0 3.0 0.00 0.00 0.00 88 1022.4
20260904185803 70 328 1.0 3.0 0.00 0.00 0.00 88 1022.3
20260904185703 70 328 1.0 3.0 0.00 0.00 0.00 87 1022.5
20260904185603 70 329 1.0 3.0 0.00 0.00 0.00 87 1022.4
20260904185504 70 340 1.0 2.0 0.00 0.00 0.00 87 1022.3
20260904185403 70 341 1.0 2.0 0.00 0.00 0.00 87 1022.5
20260904185306 70 341 1.0 2.0 0.00 0.00 0.00 87 1022.5
20260904185203 70 339 1.0 2.0 0.00 0.00 0.00 87 1022.4
20260904185103 71 345 1.0 2.0 0.00 0.00 0.00 87 1022.6
20260904185024 71 345 1.0 2.0 0.00 0.00 0.00 87 1022.5
20260904184903 71 346 1.0 2.0 0.00 0.00 0.00 87 1022.4
20260904184803 71 346 0.0 2.0 0.00 0.00 0.00 87 1022.4
20260904184703 71 348 0.0 2.0 0.00 0.00 0.00 86 1022.4
20260904184603 71 346 0.0 2.0 0.00 0.00 0.00 86 1022.4
20260904184524 71 347 1.0 2.0 0.00 0.00 0.00 86 1022.3
20260904184424 71 346 1.0 2.0 0.00 0.00 0.00 86 1022.5
20260904184303 71 346 1.0 2.0 0.00 0.00 0.00 86 1022.5
20260904184203 71 346 1.0 2.0 0.00 0.00 0.00 86 1022.3
20260904184103 71 351 1.0 1.0 0.00 0.00 0.00 86 1022.4
20260904184024 71 351 0.0 1.0 0.00 0.00 0.00 86 1022.4
20260904183903 71 352 0.0 1.0 0.00 0.00 0.00 86 1022.4
20260904183824 71 352 0.0 1.0 0.00 0.00 0.00 86 1022.2
20260904183703 71 353 1.0 1.0 0.00 0.00 0.00 86 1022.3
20260904183603 71 355 1.0 1.0 0.00 0.00 0.00 86 1022.4
20260904183503 71 358 1.0 2.0 0.00 0.00 0.00 86 1022.2
20260904183403 71 2 1.0 2.0 0.00 0.00 0.00 86 1022.3
20260904183303 71 4 1.0 2.0 0.00 0.00 0.00 86 1022.3
20260904183203 71 6 1.0 2.0 0.00 0.00 0.00 86 1022.2
20260904183124 71 8 1.0 2.0 0.00 0.00 0.00 86 1022.4
20260904183003 71 8 1.0 2.0 0.00 0.00 0.00 86 1022.1
20260904182904 71 8 1.0 2.0 0.00 0.00 0.00 86 1022.2
20260904182803 71 9 1.0 2.0 0.00 0.00 0.00 86 1022.2
20260904182703 71 9 1.0 2.0 0.00 0.00 0.00 86 1022.1
20260904182603 71 9 2.0 2.0 0.00 0.00 0.00 86 1022.1
20260904182503 71 8 2.0 2.0 0.00 0.00 0.00 86 1022.2
20260904182424 71 8 2.0 2.0 0.00 0.00 0.00 86 1022.2
20260904182306 71 8 2.0 2.0 0.00 0.00 0.00 86 1022.0
20260904182203 71 7 1.0 2.0 0.00 0.00 0.00 86 1022.0
20260904182103 71 6 1.0 2.0 0.00 0.00 0.00 86 1022.0
20260904182003 71 5 1.0 2.0 0.00 0.00 0.00 86 1022.0
20260904181903 71 4 1.0 2.0 0.00 0.00 0.00 86 1022.0
20260904181803 71 3 1.0 2.0 0.00 0.00 0.00 86 1022.1
20260904181703 71 2 1.0 2.0 0.00 0.00 0.00 86 1022.0
20260904181603 72 1 1.0 2.0 0.00 0.00 0.00 85 1021.9
20260904181524 72 1 1.0 2.0 0.00 0.00 0.00 85 1022.0
20260904181424 72 2 0.0 1.0 0.00 0.00 0.00 85 1021.9
20260904181303 72 1 0.0 1.0 0.00 0.00 0.00 85 1022.0
20260904181203 72 2 0.0 1.0 0.00 0.00 0.00 85 1021.9
20260904181103 72 1 0.0 1.0 0.00 0.00 0.00 85 1022.0
20260904181003 72 359 0.0 1.0 0.00 0.00 0.00 85 1022.0
20260904180903 72 358 0.0 1.0 0.00 0.00 0.00 85 1022.0
20260904180803 72 358 1.0 1.0 0.00 0.00 0.00 85 1022.2
20260904180703 72 358 1.0 1.0 0.00 0.00 0.00 84 1022.0
20260904180603 72 357 1.0 1.0 0.00 0.00 0.00 84 1022.0
20260904180503 72 352 1.0 2.0 0.00 0.00 0.00 84 1022.0
20260904180424 72 352 1.0 2.0 0.00 0.00 0.00 84 1022.0
20260904180303 72 345 1.0 2.0 0.00 0.00 0.00 84 1022.0
20260904180203 72 340 1.0 2.0 0.00 0.00 0.00 84 1021.9
20260904180103 72 341 1.0 2.0 0.00 0.00 0.00 84 1022.0
20260904180003 73 341 1.0 2.0 0.00 0.00 0.00 84 1021.7
20260904175903 73 342 1.0 2.0 0.00 0.00 0.00 83 1022.0
20260904175803 73 340 1.0 3.0 0.00 0.00 0.00 83 1022.0
20260904175703 73 340 2.0 3.0 0.00 0.00 0.00 83 1021.8
20260904175603 73 340 2.0 3.0 0.00 0.00 0.00 83 1022.0
20260904175503 73 333 2.0 4.0 0.00 0.00 0.00 82 1021.9
20260904175424 73 333 2.0 4.0 0.00 0.00 0.00 82 1021.7
20260904175305 73 331 2.0 4.0 0.00 0.00 0.00 82 1021.9
20260904175224 73 330 2.0 4.0 0.00 0.00 0.00 82 1021.9
20260904175104 73 331 2.0 4.0 0.00 0.00 0.00 82 1021.9
20260904175003 74 330 2.0 4.0 0.00 0.00 0.00 82 1021.9
20260904174903 74 327 2.0 4.0 0.00 0.00 0.00 81 1021.9
20260904174803 74 327 2.0 4.0 0.00 0.00 0.00 81 1021.9
20260904174703 74 328 2.0 4.0 0.00 0.00 0.00 81 1022.0
20260904174603 74 328 1.0 4.0 0.00 0.00 0.00 81 1022.0
20260904174503 74 337 1.0 3.0 0.00 0.00 0.00 81 1021.9
20260904174403 74 338 1.0 3.0 0.00 0.00 0.00 81 1022.0
20260904174303 74 340 1.0 3.0 0.00 0.00 0.00 80 1021.9
20260904174203 74 353 1.0 3.0 0.00 0.00 0.00 81 1022.0
20260904174103 74 350 1.0 3.0 0.00 0.00 0.00 81 1022.0
20260904174024 74 351 1.0 3.0 0.00 0.00 0.00 80 1021.9
20260904173903 74 338 1.0 3.0 0.00 0.00 0.00 80 1021.7
20260904173803 74 328 1.0 3.0 0.00 0.00 0.00 80 1021.8
20260904173703 74 328 2.0 3.0 0.00 0.00 0.00 80 1021.8
20260904173603 74 328 2.0 3.0 0.00 0.00 0.00 80 1021.8
20260904173503 74 327 2.0 3.0 0.00 0.00 0.00 80 1021.8
20260904173424 74 325 2.0 3.0 0.00 0.00 0.00 80 1021.7
20260904173324 74 326 2.0 4.0 0.00 0.00 0.00 80 1021.7
20260904173224 74 321 2.0 4.0 0.00 0.00 0.00 80 1021.7
20260904173103 74 313 2.0 4.0 0.00 0.00 0.00 80 1021.8
20260904173003 74 308 2.0 4.0 0.00 0.00 0.00 80 1021.7
20260904172903 74 315 2.0 4.0 0.00 0.00 0.00 80 1021.6
20260904172803 74 318 2.0 4.0 0.00 0.00 0.00 81 1021.7
20260904172724 74 319 3.0 6.0 0.00 0.00 0.00 80 1021.6
20260904172604 74 318 3.0 6.0 0.00 0.00 0.00 80 1021.7
20260904172503 74 318 3.0 6.0 0.00 0.00 0.00 81 1021.6
20260904172403 74 313 3.0 6.0 0.00 0.00 0.00 80 1021.8
20260904172305 74 313 3.0 6.0 0.00 0.00 0.00 80 1021.6
20260904172203 74 307 3.0 6.0 0.00 0.00 0.00 80 1021.7
20260904172124 74 306 3.0 6.0 0.00 0.00 0.00 80 1021.6
20260904172003 74 310 3.0 6.0 0.00 0.00 0.00 81 1021.5
20260904171903 74 306 3.0 6.0 0.00 0.00 0.00 80 1021.5
20260904171803 74 304 3.0 6.0 0.00 0.00 0.00 80 1021.5
20260904171703 74 300 3.0 4.0 0.00 0.00 0.00 80 1021.5
20260904171603 74 298 3.0 4.0 0.00 0.00 0.00 80 1021.5
20260904171503 74 296 3.0 4.0 0.00 0.00 0.00 80 1021.4
20260904171403 74 293 3.0 4.0 0.00 0.00 0.00 80 1021.3
20260904171303 74 293 3.0 6.0 0.00 0.00 0.00 80 1021.5
20260904171203 74 296 3.0 6.0 0.00 0.00 0.00 79 1021.4
20260904171103 74 290 3.0 6.0 0.00 0.00 0.00 80 1021.4
20260904171003 74 295 3.0 6.0 0.00 0.00 0.00 80 1021.5
20260904170903 74 298 3.0 6.0 0.00 0.00 0.00 80 1021.5
20260904170824 74 299 3.0 6.0 0.00 0.00 0.00 80 1021.4
20260904170703 74 304 3.0 6.0 0.00 0.00 0.00 80 1021.4
20260904170603 74 306 2.0 6.0 0.00 0.00 0.00 80 1021.5
20260904170503 74 300 3.0 6.0 0.00 0.00 0.00 80 1021.5
20260904170424 74 306 2.0 6.0 0.00 0.00 0.00 80 1021.4
20260904170303 74 310 2.0 4.0 0.00 0.00 0.00 80 1021.3
20260904170224 74 308 2.0 4.0 0.00 0.00 0.00 80 1021.4
20260904170124 74 315 2.0 4.0 0.00 0.00 0.00 81 1021.3
20260904170003 74 306 2.0 4.0 0.00 0.00 0.00 81 1021.4
20260904165903 74 305 2.0 4.0 0.00 0.00 0.00 81 1021.5
20260904165803 74 303 2.0 4.0 0.00 0.00 0.00 81 1021.5
20260904165703 74 296 2.0 4.0 0.00 0.00 0.00 80 1021.4
20260904165603 74 295 2.0 4.0 0.00 0.00 0.00 80 1021.3
20260904165503 74 299 2.0 4.0 0.00 0.00 0.00 81 1021.3
20260904165403 74 294 2.0 4.0 0.00 0.00 0.00 80 1021.4
20260904165305 74 296 2.0 4.0 0.00 0.00 0.00 81 1021.3
20260904165203 74 298 2.0 4.0 0.00 0.00 0.00 81 1021.3
20260904165103 74 298 2.0 4.0 0.00 0.00 0.00 81 1021.4
20260904165003 74 300 2.0 4.0 0.00 0.00 0.00 81 1021.4
20260904164904 74 305 2.0 3.0 0.00 0.00 0.00 81 1021.2
20260904164803 74 300 2.0 3.0 0.00 0.00 0.00 81 1021.2
20260904164703 74 305 2.0 3.0 0.00 0.00 0.00 81 1021.3
20260904164603 74 304 2.0 3.0 0.00 0.00 0.00 81 1021.1
20260904164524 74 309 2.0 3.0 0.00 0.00 0.00 82 1021.0
20260904164403 74 312 2.0 3.0 0.00 0.00 0.00 82 1021.1
20260904164324 74 312 2.0 3.0 0.00 0.00 0.00 81 1021.2
20260904164203 74 312 2.0 3.0 0.00 0.00 0.00 81 1021.1
20260904164124 75 305 2.0 3.0 0.00 0.00 0.00 81 1021.2
20260904164003 75 308 2.0 3.0 0.00 0.00 0.00 81 1021.2
20260904163903 75 309 2.0 3.0 0.00 0.00 0.00 80 1021.3
20260904163803 75 312 2.0 3.0 0.00 0.00 0.00 80 1021.4
20260904163703 75 317 2.0 3.0 0.00 0.00 0.00 80 1021.3
20260904163603 75 309 2.0 4.0 0.00 0.00 0.00 80 1021.3
20260904163524 75 307 2.0 4.0 0.00 0.00 0.00 80 1021.2
20260904163424 75 303 2.0 6.0 0.00 0.00 0.00 80 1021.2
20260904163303 75 303 2.0 6.0 0.00 0.00 0.00 80 1021.1
20260904163203 76 306 2.0 6.0 0.00 0.00 0.00 79 1021.1
20260904163124 76 307 2.0 6.0 0.00 0.00 0.00 79 1021.0
20260904163003 76 307 2.0 6.0 0.00 0.00 0.00 79 1021.0
20260904162903 76 301 2.0 7.0 0.00 0.00 0.00 79 1021.0
20260904162803 76 298 3.0 7.0 0.00 0.00 0.00 78 1021.1
20260904162703 76 297 3.0 7.0 0.00 0.00 0.00 78 1021.0
20260904162603 76 297 3.0 7.0 0.00 0.00 0.00 77 1021.1
20260904162503 76 300 3.0 7.0 0.00 0.00 0.00 77 1021.1
20260904162403 76 300 3.0 7.0 0.00 0.00 0.00 77 1021.1
20260904162306 76 305 2.0 7.0 0.00 0.00 0.00 78 1021.1
20260904162203 76 312 2.0 7.0 0.00 0.00 0.00 79 1021.2
20260904162103 76 308 2.0 7.0 0.00 0.00 0.00 78 1021.1
20260904162003 76 312 2.0 7.0 0.00 0.00 0.00 78 1021.2
20260904161903 76 313 2.0 7.0 0.00 0.00 0.00 77 1021.3
20260904161803 76 320 2.0 4.0 0.00 0.00 0.00 77 1021.2
20260904161703 76 319 2.0 4.0 0.00 0.00 0.00 78 1021.2
20260904161603 76 320 2.0 4.0 0.00 0.00 0.00 77 1021.2
20260904161503 76 312 2.0 4.0 0.00 0.00 0.00 79 1021.3
20260904161403 76 322 2.0 4.0 0.00 0.00 0.00 79 1021.2
20260904161303 76 310 2.0 4.0 0.00 0.00 0.00 79 1021.1
20260904161203 76 305 2.0 4.0 0.00 0.00 0.00 79 1021.3
20260904161103 75 302 2.0 4.0 0.00 0.00 0.00 80 1021.4
20260904161003 75 303 2.0 4.0 0.00 0.00 0.00 80 1021.2
20260904160903 75 299 3.0 4.0 0.00 0.00 0.00 78 1021.5
20260904160803 75 301 2.0 4.0 0.00 0.00 0.00 79 1021.5
20260904160703 75 293 3.0 6.0 0.00 0.00 0.00 79 1021.4
20260904160603 75 300 3.0 6.0 0.00 0.00 0.00 79 1021.6
20260904160503 75 307 3.0 6.0 0.00 0.00 0.00 80 1021.6
20260904160403 74 303 2.0 6.0 0.00 0.00 0.00 81 1021.5
20260904160303 74 300 3.0 6.0 0.00 0.00 0.00 81 1021.5
20260904160203 74 309 2.0 6.0 0.00 0.00 0.00 82 1021.7
20260904160103 74 309 2.0 6.0 0.00 0.00 0.00 82 1021.4
20260904160024 74 307 2.0 6.0 0.00 0.00 0.00 82 1021.7
20260904155903 74 311 2.0 6.0 0.00 0.00 0.00 82 1021.6
20260904155803 74 323 2.0 6.0 0.00 0.00 0.00 82 1021.9
20260904155724 74 334 2.0 3.0 0.00 0.00 0.00 82 1021.6
20260904155624 74 336 2.0 3.0 0.00 0.00 0.00 82 1021.8
20260904155503 74 338 2.0 3.0 0.00 0.00 0.00 82 1021.8
20260904155403 74 336 2.0 3.0 0.00 0.00 0.00 82 1021.6
20260904155324 74 346 2.0 3.0 0.00 0.00 0.00 82 1021.8
20260904155203 74 346 2.0 3.0 0.00 0.00 0.00 82 1021.8
20260904155103 74 351 1.0 3.0 0.00 0.00 0.00 83 1021.6
20260904155003 73 352 2.0 3.0 0.00 0.00 0.00 83 1021.8
20260904154903 73 352 2.0 7.0 0.00 0.00 0.00 83 1021.7
20260904154803 73 352 2.0 7.0 0.00 0.00 0.00 83 1021.9
20260904154703 73 352 2.0 7.0 0.00 0.00 0.00 83 1021.8
20260904154603 73 353 2.0 7.0 0.00 0.00 0.00 83 1021.9
20260904154504 73 353 2.0 7.0 0.00 0.00 0.00 83 1021.8
20260904154404 73 353 3.0 7.0 0.00 0.00 0.00 83 1021.9
20260904154303 73 354 3.0 7.0 0.00 0.00 0.00 83 1021.9
20260904154203 73 353 2.0 7.0 0.00 0.00 0.00 83 1021.9
20260904154103 73 353 2.0 7.0 0.00 0.00 0.00 84 1021.9
20260904154003 73 352 2.0 7.0 0.00 0.00 0.00 83 1021.9
20260904153903 73 352 2.0 7.0 0.00 0.00 0.00 83 1022.0
20260904153803 73 354 2.0 6.0 0.00 0.00 0.00 83 1022.0
20260904153703 74 356 2.0 6.0 0.00 0.00 0.00 82 1022.0
20260904153603 74 356 2.0 6.0 0.00 0.00 0.00 82 1022.0
20260904153503 74 355 2.0 3.0 0.00 0.00 0.00 83 1022.0
20260904153403 74 356 2.0 8.0 0.00 0.00 0.00 82 1022.0
20260904153303 73 353 2.0 8.0 0.00 0.00 0.00 83 1022.0
20260904153203 73 353 2.0 8.0 0.00 0.00 0.00 83 1022.1
20260904153103 73 351 2.0 8.0 0.00 0.00 0.00 83 1022.2
20260904153003 72 351 3.0 8.0 0.00 0.00 0.00 84 1022.0
20260904152924 72 350 3.0 8.0 0.00 0.00 0.00 84 1022.1
20260904152803 72 350 3.0 8.0 0.00 0.00 0.00 84 1022.2
20260904152703 72 346 3.0 8.0 0.00 0.00 0.00 84 1022.1
20260904152603 72 346 3.0 8.0 0.00 0.00 0.00 85 1022.1
20260904152503 72 347 3.0 8.0 0.00 0.00 0.00 84 1022.3
20260904152403 72 347 3.0 8.0 0.00 0.00 0.00 84 1022.3
20260904152306 72 345 3.0 6.0 0.00 0.00 0.00 84 1022.2
20260904152203 72 346 3.0 6.0 0.00 0.00 0.00 84 1022.0
20260904152103 72 346 3.0 6.0 0.00 0.00 0.00 84 1022.2
20260904152003 72 346 2.0 6.0 0.00 0.00 0.00 85 1022.3
20260904151902 72 337 3.0 6.0 0.00 0.00 0.00 84 1022.2
20260904151803 72 334 3.0 6.0 0.00 0.00 0.00 84 1022.3
20260904151703 72 336 3.0 6.0 0.00 0.00 0.00 84 1022.4
20260904151603 72 333 2.0 6.0 0.00 0.00 0.00 84 1022.5
20260904151502 73 331 2.0 4.0 0.00 0.00 0.00 84 1022.3
20260904151403 73 330 2.0 4.0 0.00 0.00 0.00 84 1022.4
20260904151303 73 329 2.0 4.0 0.00 0.00 0.00 84 1022.4
20260904151203 73 328 2.0 4.0 0.00 0.00 0.00 83 1022.4
20260904151103 73 330 3.0 4.0 0.00 0.00 0.00 84 1022.6
20260904151003 73 333 3.0 4.0 0.00 0.00 0.00 83 1022.6
20260904150903 73 342 2.0 4.0 0.00 0.00 0.00 83 1022.6
20260904150802 73 343 2.0 4.0 0.00 0.00 0.00 83 1022.4
20260904150723 73 347 2.0 4.0 0.00 0.00 0.00 82 1022.4
20260904150603 73 349 3.0 7.0 0.00 0.00 0.00 83 1022.5
20260904150502 73 351 3.0 7.0 0.00 0.00 0.00 83 1022.4
20260904150403 73 354 3.0 7.0 0.00 0.00 0.00 83 1022.3
20260904150324 73 348 3.0 7.0 0.00 0.00 0.00 83 1022.2
20260904150202 73 346 3.0 7.0 0.00 0.00 0.00 82 1022.2
20260904150003 73 347 3.0 7.0 0.00 0.00 0.00 82 1022.4
20260904145903 73 346 3.0 7.0 0.00 0.00 0.00 83 1022.4
20260904145824 73 350 3.0 7.0 0.00 0.00 0.00 83 1022.7
20260904145702 74 349 3.0 7.0 0.00 0.00 0.00 82 1022.6
20260904145603 74 348 3.0 7.0 0.00 0.00 0.00 82 1022.5
20260904145502 74 349 3.0 7.0 0.00 0.00 0.00 82 1022.6
20260904145403 74 348 3.0 7.0 0.00 0.00 0.00 82 1022.5
20260904145305 73 352 3.0 8.0 0.00 0.00 0.00 83 1022.7
20260904145203 73 354 4.0 8.0 0.00 0.00 0.00 83 1022.8
20260904145103 73 354 4.0 8.0 0.00 0.00 0.00 83 1022.7
20260904145003 73 353 3.0 8.0 0.00 0.00 0.00 83 1022.4
20260904144903 73 353 3.0 8.0 0.00 0.00 0.00 83 1022.4
20260904144803 73 352 3.0 8.0 0.00 0.00 0.00 83 1022.6
20260904144703 73 352 3.0 8.0 0.00 0.00 0.00 82 1022.5
20260904144603 73 355 3.0 8.0 0.00 0.00 0.00 82 1022.6
20260904144502 74 352 3.0 8.0 0.00 0.00 0.00 82 1022.6
20260904144402 74 351 3.0 8.0 0.00 0.00 0.00 81 1022.7
20260904144303 74 345 3.0 8.0 0.00 0.00 0.00 81 1022.6
20260904144224 74 345 3.0 6.0 0.00 0.00 0.00 81 1022.6
20260904144124 74 344 3.0 6.0 0.00 0.00 0.00 82 1022.8
20260904144003 74 344 3.0 6.0 0.00 0.00 0.00 82 1022.7
20260904143902 74 338 3.0 6.0 0.00 0.00 0.00 82 1022.8
20260904143803 74 340 3.0 6.0 0.00 0.00 0.00 82 1022.7
20260904143703 74 338 3.0 7.0 0.00 0.00 0.00 82 1022.9
20260904143603 74 337 3.0 7.0 0.00 0.00 0.00 82 1022.8
20260904143503 74 338 4.0 7.0 0.00 0.00 0.00 81 1022.7
20260904143402 74 341 3.0 7.0 0.00 0.00 0.00 81 1022.9
20260904143303 74 351 3.0 7.0 0.00 0.00 0.00 82 1022.8
20260904143224 74 350 3.0 7.0 0.00 0.00 0.00 82 1022.7
20260904143103 74 350 3.0 7.0 0.00 0.00 0.00 82 1022.8
20260904143003 74 350 4.0 7.0 0.00 0.00 0.00 81 1022.8
20260904142924 75 353 4.0 8.0 0.00 0.00 0.00 81 1022.8
20260904142803 75 351 4.0 8.0 0.00 0.00 0.00 81 1022.8
20260904142703 75 354 4.0 8.0 0.00 0.00 0.00 81 1022.7
20260904142603 75 356 3.0 8.0 0.00 0.00 0.00 80 1022.9
20260904142503 74 354 3.0 8.0 0.00 0.00 0.00 81 1023.0
20260904142403 74 354 3.0 8.0 0.00 0.00 0.00 82 1022.9
20260904142306 74 353 3.0 8.0 0.00 0.00 0.00 81 1022.9
20260904142203 74 350 4.0 8.0 0.00 0.00 0.00 81 1022.9
20260904142124 74 351 4.0 8.0 0.00 0.00 0.00 81 1022.9
20260904142003 75 351 4.0 8.0 0.00 0.00 0.00 81 1022.8
20260904141903 75 351 4.0 8.0 0.00 0.00 0.00 81 1022.9
20260904141803 74 351 4.0 8.0 0.00 0.00 0.00 82 1023.0
20260904141702 74 348 4.0 8.0 0.00 0.00 0.00 83 1023.0
20260904141603 74 347 4.0 8.0 0.00 0.00 0.00 82 1023.1
20260904141503 73 347 4.0 8.0 0.00 0.00 0.00 83 1023.0
20260904141403 73 348 4.0 8.0 0.00 0.00 0.00 83 1023.1
20260904141303 73 348 4.0 8.0 0.00 0.00 0.00 82 1023.2
20260904141203 73 349 4.0 8.0 0.00 0.00 0.00 82 1023.0
20260904141103 73 350 4.0 8.0 0.00 0.00 0.00 84 1022.9
20260904141003 73 352 4.0 8.0 0.00 0.00 0.00 83 1023.2
20260904140903 73 350 4.0 8.0 0.00 0.00 0.00 83 1023.1
20260904140803 73 350 4.0 8.0 0.00 0.00 0.00 83 1023.0
20260904140703 74 350 4.0 8.0 0.00 0.00 0.00 83 1023.0
20260904140624 74 351 4.0 8.0 0.00 0.00 0.00 83 1022.9
20260904140503 74 351 3.0 7.0 0.00 0.00 0.00 82 1023.0
20260904140403 74 350 3.0 7.0 0.00 0.00 0.00 83 1022.9
20260904140303 74 352 4.0 7.0 0.00 0.00 0.00 83 1023.0
20260904140203 73 356 4.0 7.0 0.00 0.00 0.00 83 1022.9
20260904140003 73 354 4.0 7.0 0.00 0.00 0.00 84 1023.0
20260904135924 73 354 4.0 8.0 0.00 0.00 0.00 83 1023.1
20260904135803 73 357 4.0 8.0 0.00 0.00 0.00 83 1023.1
20260904135703 73 359 4.0 8.0 0.00 0.00 0.00 84 1022.9
20260904135603 73 360 5.0 8.0 0.00 0.00 0.00 83 1023.2
20260904135503 73 2 5.0 8.0 0.00 0.00 0.00 83 1023.2
20260904135403 73 359 5.0 8.0 0.00 0.00 0.00 83 1023.2
20260904135324 73 359 4.0 8.0 0.00 0.00 0.00 84 1023.1
20260904135224 73 360 4.0 8.0 0.00 0.00 0.00 84 1022.9
20260904135103 73 358 4.0 8.0 0.00 0.00 0.00 84 1023.1
20260904135003 73 354 4.0 8.0 0.00 0.00 0.00 83 1023.2
20260904134903 73 355 4.0 8.0 0.00 0.00 0.00 83 1023.2
20260904134803 73 355 4.0 7.0 0.00 0.00 0.00 83 1023.2
20260904134702 74 354 3.0 7.0 0.00 0.00 0.00 83 1023.0
20260904134603 74 350 3.0 7.0 0.00 0.00 0.00 83 1023.1
20260904134503 74 352 3.0 7.0 0.00 0.00 0.00 83 1023.2
20260904134403 74 352 3.0 7.0 0.00 0.00 0.00 83 1023.2
20260904134303 74 352 3.0 7.0 0.00 0.00 0.00 83 1023.2
20260904134203 74 353 3.0 7.0 0.00 0.00 0.00 82 1023.2
20260904134103 75 358 3.0 7.0 0.00 0.00 0.00 81 1023.2
20260904134003 75 358 3.0 7.0 0.00 0.00 0.00 81 1023.2
20260904133903 75 360 3.0 7.0 0.00 0.00 0.00 83 1023.1
20260904133803 74 356 3.0 7.0 0.00 0.00 0.00 84 1023.1
20260904133703 74 355 3.0 7.0 0.00 0.00 0.00 83 1023.3
20260904133624 74 355 3.0 7.0 0.00 0.00 0.00 84 1023.1
20260904133503 74 356 3.0 7.0 0.00 0.00 0.00 84 1023.1
20260904133403 74 356 3.0 7.0 0.00 0.00 0.00 84 1023.1
20260904133303 74 354 4.0 7.0 0.00 0.00 0.00 83 1023.1
20260904133224 74 354 4.0 7.0 0.00 0.00 0.00 83 1023.1
20260904133103 74 351 4.0 7.0 0.00 0.00 0.00 83 1023.1
20260904133024 74 348 3.0 7.0 0.00 0.00 0.00 84 1023.2
20260904132903 73 348 3.0 7.0 0.00 0.00 0.00 85 1023.1
20260904132803 73 349 3.0 7.0 0.00 0.00 0.00 85 1023.2
20260904132703 73 347 3.0 7.0 0.00 0.00 0.00 85 1023.1
20260904132603 73 347 3.0 7.0 0.00 0.00 0.00 85 1023.2
20260904132502 73 346 4.0 7.0 0.00 0.00 0.00 84 1022.9
20260904132403 73 346 4.0 8.0 0.00 0.00 0.00 85 1023.2
20260904132324 73 346 4.0 8.0 0.00 0.00 0.00 84 1023.2
20260904132203 73 347 4.0 8.0 0.00 0.00 0.00 84 1023.1
20260904132103 73 347 4.0 8.0 0.00 0.00 0.00 85 1023.2
20260904132003 73 347 4.0 8.0 0.00 0.00 0.00 85 1023.1
20260904131903 73 349 4.0 8.0 0.00 0.00 0.00 84 1023.1
20260904131803 73 350 4.0 8.0 0.00 0.00 0.00 84 1023.1
20260904131703 74 351 4.0 8.0 0.00 0.00 0.00 83 1023.1
20260904131603 74 351 3.0 8.0 0.00 0.00 0.00 84 1023.0
20260904131503 74 350 3.0 8.0 0.00 0.00 0.00 83 1022.9
20260904131403 74 350 3.0 7.0 0.00 0.00 0.00 83 1023.1
20260904131303 74 348 3.0 7.0 0.00 0.00 0.00 82 1023.0
20260904131203 75 340 3.0 6.0 0.00 0.00 0.00 82 1023.0
20260904131103 76 341 3.0 6.0 0.00 0.00 0.00 81 1022.9
20260904131003 76 340 2.0 6.0 0.00 0.00 0.00 80 1022.9
20260904130903 76 340 2.0 6.0 0.00 0.00 0.00 80 1022.9
20260904130824 76 335 2.0 4.0 0.00 0.00 0.00 81 1022.9
20260904130724 76 340 2.0 4.0 0.00 0.00 0.00 81 1023.1
20260904130603 76 340 2.0 4.0 0.00 0.00 0.00 81 1023.3
20260904130503 76 341 2.0 4.0 0.00 0.00 0.00 81 1023.2
20260904130403 75 340 2.0 4.0 0.00 0.00 0.00 81 1023.1
20260904130303 75 343 2.0 4.0 0.00 0.00 0.00 81 1023.3
20260904130203 75 351 2.0 4.0 0.00 0.00 0.00 81 1023.2
20260904130003 75 352 2.0 4.0 0.00 0.00 0.00 81 1023.1
20260904125903 75 346 3.0 4.0 0.00 0.00 0.00 81 1023.1
20260904125803 75 345 3.0 4.0 0.00 0.00 0.00 81 1022.9
20260904125703 75 340 3.0 4.0 0.00 0.00 0.00 81 1023.2
20260904125624 75 338 2.0 4.0 0.00 0.00 0.00 82 1023.0
20260904125503 74 339 2.0 4.0 0.00 0.00 0.00 82 1022.9
20260904125403 75 340 2.0 4.0 0.00 0.00 0.00 83 1022.9
20260904125305 75 341 2.0 4.0 0.00 0.00 0.00 82 1023.0
20260904125203 75 344 2.0 4.0 0.00 0.00 0.00 81 1022.8
20260904125103 75 344 2.0 4.0 0.00 0.00 0.00 82 1022.9
20260904125003 75 341 2.0 4.0 0.00 0.00 0.00 82 1022.8
20260904124903 75 341 3.0 8.0 0.00 0.00 0.00 81 1022.8
20260904124803 74 346 3.0 8.0 0.00 0.00 0.00 83 1022.8
20260904124703 74 351 3.0 8.0 0.00 0.00 0.00 83 1022.8
20260904124603 74 350 3.0 8.0 0.00 0.00 0.00 83 1022.9
20260904124503 74 347 3.0 8.0 0.00 0.00 0.00 82 1022.8
20260904124424 74 343 3.0 8.0 0.00 0.00 0.00 82 1022.9
20260904124303 74 340 3.0 8.0 0.00 0.00 0.00 82 1022.9
20260904124224 75 339 3.0 8.0 0.00 0.00 0.00 83 1022.7
20260904124103 75 335 3.0 8.0 0.00 0.00 0.00 82 1022.7
20260904124003 76 335 2.0 8.0 0.00 0.00 0.00 80 1022.8
20260904123903 76 335 2.0 4.0 0.00 0.00 0.00 79 1022.7
20260904123803 76 334 2.0 4.0 0.00 0.00 0.00 81 1022.6
20260904123703 76 331 2.0 4.0 0.00 0.00 0.00 80 1022.7
20260904123603 76 330 2.0 4.0 0.00 0.00 0.00 80 1022.8
20260904123503 76 333 2.0 4.0 0.00 0.00 0.00 79 1022.6
20260904123403 76 336 2.0 4.0 0.00 0.00 0.00 78 1022.8
20260904123303 76 341 2.0 4.0 0.00 0.00 0.00 80 1022.6
20260904123203 76 343 2.0 4.0 0.00 0.00 0.00 81 1022.6
20260904123103 75 349 2.0 4.0 0.00 0.00 0.00 83 1022.9
20260904123003 75 349 2.0 6.0 0.00 0.00 0.00 82 1022.6
20260904122903 75 349 2.0 6.0 0.00 0.00 0.00 81 1022.6
20260904122803 74 349 2.0 6.0 0.00 0.00 0.00 81 1022.7
20260904122703 74 352 2.0 6.0 0.00 0.00 0.00 82 1022.6
20260904122603 74 353 2.0 6.0 0.00 0.00 0.00 82 1022.3
20260904122503 74 353 2.0 6.0 0.00 0.00 0.00 83 1022.3
20260904122403 74 353 2.0 6.0 0.00 0.00 0.00 83 1022.3
20260904122306 74 352 2.0 6.0 0.00 0.00 0.00 82 1022.7
20260904122203 74 353 2.0 6.0 0.00 0.00 0.00 82 1022.7
20260904122103 75 352 2.0 6.0 0.00 0.00 0.00 83 1022.4
20260904122003 75 352 2.0 6.0 0.00 0.00 0.00 83 1022.4
20260904121903 74 352 2.0 3.0 0.00 0.00 0.00 83 1022.6
20260904121803 74 354 2.0 3.0 0.00 0.00 0.00 83 1022.6
20260904121703 74 354 2.0 3.0 0.00 0.00 0.00 84 1022.5
20260904121603 74 352 2.0 3.0 0.00 0.00 0.00 83 1022.7
20260904121503 74 354 2.0 3.0 0.00 0.00 0.00 84 1022.9
20260904121403 74 354 2.0 3.0 0.00 0.00 0.00 85 1022.6
20260904121303 73 354 2.0 3.0 0.00 0.00 0.00 84 1022.7
20260904121203 74 354 2.0 3.0 0.00 0.00 0.00 84 1022.7
20260904121103 74 350 2.0 3.0 0.00 0.00 0.00 84 1022.8
20260904121003 74 352 2.0 3.0 0.00 0.00 0.00 84 1022.8
20260904120903 74 355 2.0 3.0 0.00 0.00 0.00 86 1022.7
20260904120803 73 352 2.0 3.0 0.00 0.00 0.00 86 1023.0
20260904120703 73 358 2.0 3.0 0.00 0.00 0.00 85 1022.9
20260904120603 73 359 2.0 3.0 0.00 0.00 0.00 86 1023.0
20260904120503 73 11 2.0 3.0 0.00 0.00 0.00 87 1022.9
20260904120424 73 12 2.0 3.0 0.00 0.00 0.00 88 1022.9
20260904120303 73 24 1.0 3.0 0.00 0.00 0.00 89 1023.0
20260904120203 72 50 1.0 3.0 0.00 0.00 0.00 91 1022.9
20260904120003 72 26 1.0 3.0 0.00 0.00 0.00 92 1022.9
20260904115924 71 26 1.0 3.0 0.00 0.00 0.00 92 1022.9
20260904115803 71 52 1.0 3.0 0.00 0.00 0.00 93 1022.8
20260904115703 71 26 1.0 2.0 0.00 0.00 0.00 94 1022.7
20260904115603 71 22 0.0 2.0 0.00 0.00 0.00 96 1022.8
20260904115503 71 6 0.0 2.0 0.00 0.00 0.00 99 1022.8
20260904115403 71 7 0.0 2.0 0.00 0.00 0.00 99 1022.8
20260904115306 71 7 0.0 2.0 0.00 0.00 0.00 99 1022.9
20260904115203 70 3 1.0 2.0 0.00 0.00 0.00 99 1022.5
20260904115103 70 358 1.0 2.0 0.00 0.00 0.00 99 1022.7
20260904115003 70 360 1.0 2.0 0.00 0.00 0.00 99 1022.7
20260904114924 70 360 1.0 2.0 0.00 0.00 0.00 99 1022.5
20260904114803 69 360 1.0 2.0 0.00 0.00 0.00 99 1022.7
20260904114703 69 347 1.0 3.0 0.00 0.00 0.00 99 1022.7
20260904114603 69 347 1.0 3.0 0.00 0.00 0.00 99 1022.6
20260904114503 69 349 1.0 3.0 0.00 0.00 0.00 99 1022.7
20260904114424 68 349 1.0 3.0 0.00 0.00 0.00 99 1022.7
20260904114303 68 350 1.0 3.0 0.00 0.00 0.00 99 1022.7
20260904114203 68 350 1.0 3.0 0.00 0.00 0.00 99 1022.6
20260904114103 68 345 1.0 3.0 0.00 0.00 0.00 99 1022.7
20260904114003 68 351 1.0 3.0 0.00 0.00 0.00 99 1022.7
20260904113924 68 350 2.0 4.0 0.00 0.00 0.00 99 1022.7
20260904113803 68 350 2.0 4.0 0.00 0.00 0.00 99 1022.8
20260904113703 68 349 2.0 4.0 0.00 0.00 0.00 99 1022.6
20260904113603 68 355 2.0 4.0 0.00 0.00 0.00 99 1022.6
20260904113503 68 354 2.0 4.0 0.00 0.00 0.00 99 1022.7
20260904113403 67 353 2.0 4.0 0.00 0.00 0.00 99 1022.5
20260904113303 67 353 2.0 4.0 0.00 0.00 0.00 99 1022.5
20260904113203 67 354 1.0 4.0 0.00 0.00 0.00 99 1022.6
20260904113103 67 359 1.0 4.0 0.00 0.00 0.00 99 1022.5
20260904113003 67 358 1.0 4.0 0.00 0.00 0.00 99 1022.3
20260904112903 67 357 1.0 4.0 0.00 0.00 0.00 99 1022.4
20260904112803 67 360 1.0 2.0 0.00 0.00 0.00 99 1022.5
20260904112703 67 360 1.0 2.0 0.00 0.00 0.00 99 1022.3
20260904112603 67 6 1.0 2.0 0.00 0.00 0.00 99 1022.5
20260904112524 67 7 1.0 2.0 0.00 0.00 0.00 99 1022.5
20260904112403 67 7 1.0 2.0 0.00 0.00 0.00 99 1022.6
20260904112305 66 6 1.0 2.0 0.00 0.00 0.00 99 1022.5
20260904112203 66 4 1.0 2.0 0.00 0.00 0.00 99 1022.5
20260904112103 66 3 1.0 2.0 0.00 0.00 0.00 99 1022.5
20260904112003 66 2 1.0 2.0 0.00 0.00 0.00 99 1022.7
20260904111924 67 1 1.0 2.0 0.00 0.00 0.00 99 1022.6
20260904111824 67 2 1.0 2.0 0.00 0.00 0.00 99 1022.5
20260904111703 67 2 1.0 1.0 0.00 0.00 0.00 99 1022.5
20260904111624 66 1 1.0 1.0 0.00 0.00 0.00 99 1022.5
20260904111503 66 1 1.0 1.0 0.00 0.00 0.00 99 1022.6
20260904111403 66 1 1.0 1.0 0.00 0.00 0.00 99 1022.5
20260904111303 66 356 1.0 2.0 0.00 0.00 0.00 99 1022.4
20260904111224 66 350 1.0 2.0 0.00 0.00 0.00 99 1022.4
20260904111124 66 344 1.0 2.0 0.00 0.00 0.00 99 1022.5
20260904111003 66 343 1.0 2.0 0.00 0.00 0.00 99 1022.3
20260904110903 66 340 1.0 2.0 0.00 0.00 0.00 99 1022.4
20260904110803 66 348 1.0 2.0 0.00 0.00 0.00 99 1022.3
20260904110703 66 352 1.0 2.0 0.00 0.00 0.00 99 1022.3
20260904110624 66 351 1.0 2.0 0.00 0.00 0.00 99 1022.2
20260904110503 65 4 1.0 2.0 0.00 0.00 0.00 99 1022.4
20260904110403 65 24 1.0 2.0 0.00 0.00 0.00 99 1022.2
20260904110303 66 36 1.0 2.0 0.00 0.00 0.00 99 1022.3
20260904110226 66 41 1.0 2.0 0.00 0.00 0.00 99 1022.5
20260904110003 66 61 1.0 3.0 0.00 0.00 0.00 99 1022.4
20260904105924 66 61 2.0 3.0 0.00 0.00 0.00 99 1022.5
20260904105824 66 62 2.0 3.0 0.00 0.00 0.00 99 1022.7
20260904105724 66 64 2.0 3.0 0.00 0.00 0.00 99 1022.7
20260904105603 66 65 2.0 3.0 0.00 0.00 0.00 99 1022.6
20260904105503 66 62 2.0 3.0 0.00 0.00 0.00 99 1022.8
20260904105403 66 60 2.0 3.0 0.00 0.00 0.00 99 1022.8
20260904105305 65 58 2.0 3.0 0.00 0.00 0.00 99 1022.7
20260904105203 66 58 2.0 3.0 0.00 0.00 0.00 99 1022.6
20260904105103 66 58 2.0 3.0 0.00 0.00 0.00 99 1022.7
20260904105003 65 55 2.0 3.0 0.00 0.00 0.00 99 1022.6
20260904104903 65 54 1.0 3.0 0.00 0.00 0.00 99 1022.5
20260904104803 65 54 1.0 3.0 0.00 0.00 0.00 99 1022.6
20260904104724 65 51 1.0 3.0 0.00 0.00 0.00 99 1022.7
20260904104603 65 46 1.0 2.0 0.00 0.00 0.00 99 1022.6
20260904104503 65 45 1.0 2.0 0.00 0.00 0.00 99 1022.8
20260904104403 65 46 1.0 2.0 0.00 0.00 0.00 99 1022.7
20260904104303 65 46 1.0 2.0 0.00 0.00 0.00 99 1022.8
20260904104224 65 45 1.0 2.0 0.00 0.00 0.00 99 1022.7
20260904104103 65 46 1.0 2.0 0.00 0.00 0.00 99 1022.7
20260904104024 65 36 1.0 2.0 0.00 0.00 0.00 99 1022.4
20260904103903 65 28 1.0 2.0 0.00 0.00 0.00 99 1022.6
20260904103803 65 29 1.0 2.0 0.00 0.00 0.00 99 1022.4
20260904103703 65 29 1.0 2.0 0.00 0.00 0.00 99 1022.5
20260904103603 65 24 1.0 2.0 0.00 0.00 0.00 99 1022.6
20260904103503 65 19 1.0 2.0 0.00 0.00 0.00 99 1022.5
20260904103403 65 18 1.0 2.0 0.00 0.00 0.00 99 1022.4
20260904103303 65 16 1.0 2.0 0.00 0.00 0.00 99 1022.6
20260904103203 65 10 1.0 2.0 0.00 0.00 0.00 99 1022.7
20260904103103 65 9 1.0 2.0 0.00 0.00 0.00 99 1022.6
20260904103003 65 13 1.0 2.0 0.00 0.00 0.00 99 1022.6
20260904102903 65 25 1.0 2.0 0.00 0.00 0.00 99 1022.6
20260904102803 65 15 1.0 2.0 0.00 0.00 0.00 99 1022.6
20260904102703 65 360 1.0 2.0 0.00 0.00 0.00 99 1022.5
20260904102603 65 356 1.0 2.0 0.00 0.00 0.00 99 1022.3
20260904102503 65 355 0.0 2.0 0.00 0.00 0.00 99 1022.3
20260904102403 65 355 0.0 2.0 0.00 0.00 0.00 99 1022.6
20260904102306 65 353 1.0 2.0 0.00 0.00 0.00 99 1022.3
20260904102203 65 355 0.0 2.0 0.00 0.00 0.00 99 1022.3
20260904102103 65 350 0.0 2.0 0.00 0.00 0.00 99 1022.5
20260904102003 65 350 0.0 2.0 0.00 0.00 0.00 99 1022.5
20260904101903 65 347 0.0 2.0 0.00 0.00 0.00 99 1022.5
20260904101803 65 347 0.0 2.0 0.00 0.00 0.00 99 1022.5
20260904101704 65 355 0.0 2.0 0.00 0.00 0.00 99 1022.3
20260904101603 65 14 0.0 1.0 0.00 0.00 0.00 99 1022.5
20260904101503 65 23 0.0 1.0 0.00 0.00 0.00 99 1022.4
20260904101403 65 31 0.0 2.0 0.00 0.00 0.00 99 1022.4
20260904101303 65 37 1.0 2.0 0.00 0.00 0.00 99 1022.5
20260904101224 65 37 1.0 2.0 0.00 0.00 0.00 99 1022.4
20260904101124 65 33 1.0 2.0 0.00 0.00 0.00 99 1022.6
20260904101003 64 35 1.0 2.0 0.00 0.00 0.00 99 1022.5
20260904100924 64 36 1.0 2.0 0.00 0.00 0.00 99 1022.5
20260904100803 64 36 1.0 2.0 0.00 0.00 0.00 99 1022.4
20260904100703 64 36 1.0 2.0 0.00 0.00 0.00 99 1022.5
20260904100603 64 35 1.0 2.0 0.00 0.00 0.00 99 1022.5
20260904100503 64 35 1.0 2.0 0.00 0.00 0.00 99 1022.4
20260904100403 64 34 1.0 2.0 0.00 0.00 0.00 99 1022.5
20260904100303 64 33 1.0 2.0 0.00 0.00 0.00 99 1022.5
20260904100203 64 26 1.0 2.0 0.00 0.00 0.00 99 1022.4
20260904100124 64 31 1.0 1.0 0.00 0.00 0.00 99 1022.4
20260904100003 64 30 1.0 1.0 0.00 0.00 0.00 99 1022.5